Wetterdaten: Dienstag, 02.04.2019
Datum Zeit Temp. Aussen Temp. o. S. +5cm Feuchte Auss Luftdruck Regen Sonnenschein Regendauer Solar Windben Empfang
02.04.2019 00:00 7,8 C 7,8 C 5,6 C 75 % 1012,7 hPa 0,0 l/m 0 min 0 min 0 W/m 3,2 km/h (1 Bft) 95,74 %
02.04.2019 00:02 7,8 C 7,8 C 5,6 C 75 % 1012,7 hPa 0,0 l/m 0 min 0 min 0 W/m 3,2 km/h (1 Bft) 95,56 %
02.04.2019 00:04 7,8 C 7,8 C 5,6 C 76 % 1012,6 hPa 0,0 l/m 0 min 0 min 0 W/m 3,2 km/h (1 Bft) 95,74 %
02.04.2019 00:07 7,8 C 7,8 C 5,0 C 76 % 1012,7 hPa 0,0 l/m 0 min 0 min 0 W/m 0,0 km/h (0 Bft) 93,94 %
02.04.2019 00:08 7,8 C 7,8 C 5,0 C 76 % 1012,7 hPa 0,0 l/m 0 min 0 min 0 W/m 3,2 km/h (1 Bft) 100,00 %
02.04.2019 00:10 7,8 C 7,8 C 5,0 C 76 % 1012,6 hPa 0,0 l/m 0 min 0 min 0 W/m 3,2 km/h (1 Bft) 97,96 %
02.04.2019 00:12 7,7 C 7,8 C 5,0 C 76 % 1012,6 hPa 0,0 l/m 0 min 0 min 0 W/m 3,2 km/h (1 Bft) 97,96 %
02.04.2019 00:14 7,8 C 8,3 C 5,0 C 77 % 1012,6 hPa 0,0 l/m 0 min 0 min 0 W/m 6,4 km/h (2 Bft) 100,00 %
02.04.2019 00:16 7,8 C 8,3 C 5,6 C 77 % 1012,6 hPa 0,0 l/m 0 min 0 min 0 W/m 3,2 km/h (1 Bft) 95,74 %
02.04.2019 00:18 7,8 C 8,3 C 5,6 C 77 % 1012,6 hPa 0,0 l/m 0 min 0 min 0 W/m 6,4 km/h (2 Bft) 100,00 %
02.04.2019 00:20 7,8 C 8,3 C 6,1 C 77 % 1012,5 hPa 0,0 l/m 0 min 0 min 0 W/m 12,9 km/h (3 Bft) 100,00 %
02.04.2019 00:22 7,9 C 8,9 C 6,7 C 78 % 1012,5 hPa 0,0 l/m 0 min 0 min 0 W/m 9,7 km/h (2 Bft) 100,00 %
02.04.2019 00:24 8,0 C 8,9 C 7,2 C 78 % 1012,5 hPa 0,0 l/m 0 min 0 min 0 W/m 9,7 km/h (2 Bft) 97,96 %
02.04.2019 00:26 8,1 C 8,9 C 7,2 C 78 % 1012,6 hPa 0,0 l/m 0 min 0 min 0 W/m 6,4 km/h (2 Bft) 97,87 %
02.04.2019 00:28 8,2 C 8,9 C 7,2 C 78 % 1012,5 hPa 0,0 l/m 0 min 0 min 0 W/m 9,7 km/h (2 Bft) 97,87 %
02.04.2019 00:30 8,2 C 8,9 C 7,2 C 78 % 1012,5 hPa 0,0 l/m 0 min 0 min 0 W/m 6,4 km/h (2 Bft) 100,00 %
02.04.2019 00:32 8,3 C 8,9 C 7,8 C 78 % 1012,5 hPa 0,0 l/m 0 min 0 min 0 W/m 9,7 km/h (2 Bft) 100,00 %
02.04.2019 00:34 8,4 C 8,9 C 7,8 C 78 % 1012,5 hPa 0,0 l/m 0 min 0 min 0 W/m 9,7 km/h (2 Bft) 100,00 %
02.04.2019 00:36 8,4 C 8,9 C 7,8 C 77 % 1012,5 hPa 0,0 l/m 0 min 0 min 0 W/m 9,7 km/h (2 Bft) 100,00 %
02.04.2019 00:38 8,5 C 8,9 C 7,8 C 77 % 1012,4 hPa 0,0 l/m 0 min 0 min 0 W/m 9,7 km/h (2 Bft) 100,00 %
02.04.2019 00:40 8,6 C 8,9 C 7,8 C 77 % 1012,4 hPa 0,0 l/m 0 min 0 min 0 W/m 6,4 km/h (2 Bft) 97,87 %
02.04.2019 00:42 8,6 C 8,9 C 7,8 C 77 % 1012,3 hPa 0,0 l/m 0 min 0 min 0 W/m 6,4 km/h (2 Bft) 100,00 %
02.04.2019 00:44 8,7 C 8,9 C 7,8 C 76 % 1012,3 hPa 0,0 l/m 0 min 0 min 0 W/m 9,7 km/h (2 Bft) 100,00 %
02.04.2019 00:46 8,8 C 8,9 C 7,8 C 76 % 1012,3 hPa 0,0 l/m 0 min 0 min 0 W/m 9,7 km/h (2 Bft) 100,00 %
02.04.2019 00:48 8,8 C 8,9 C 7,8 C 76 % 1012,3 hPa 0,0 l/m 0 min 0 min 0 W/m 6,4 km/h (2 Bft) 100,00 %
02.04.2019 00:50 8,9 C 8,9 C 7,8 C 76 % 1012,3 hPa 0,0 l/m 0 min 0 min 0 W/m 12,9 km/h (3 Bft) 100,00 %
02.04.2019 00:52 8,9 C 8,9 C 7,8 C 76 % 1012,2 hPa 0,0 l/m 0 min 0 min 0 W/m 9,7 km/h (2 Bft) 97,87 %
02.04.2019 00:54 9,0 C 8,9 C 7,8 C 76 % 1012,3 hPa 0,0 l/m 0 min 0 min 0 W/m 9,7 km/h (2 Bft) 97,56 %
02.04.2019 00:56 9,1 C 8,9 C 7,8 C 75 % 1012,2 hPa 0,0 l/m 0 min 0 min 0 W/m 6,4 km/h (2 Bft) 100,00 %
02.04.2019 00:58 9,1 C 8,9 C 7,8 C 75 % 1012,3 hPa 0,0 l/m 0 min 0 min 0 W/m 6,4 km/h (2 Bft) 98,00 %
02.04.2019 01:00 9,1 C 8,9 C 7,8 C 75 % 1012,1 hPa 0,0 l/m 0 min 0 min 0 W/m 12,9 km/h (3 Bft) 100,00 %
02.04.2019 01:02 9,2 C 8,9 C 7,8 C 75 % 1012,2 hPa 0,0 l/m 0 min 0 min 0 W/m 6,4 km/h (2 Bft) 100,00 %
02.04.2019 01:04 9,2 C 8,9 C 7,8 C 75 % 1012,2 hPa 0,0 l/m 0 min 0 min 0 W/m 9,7 km/h (2 Bft) 100,00 %
02.04.2019 01:06 9,2 C 8,9 C 7,8 C 74 % 1012,2 hPa 0,0 l/m 0 min 0 min 0 W/m 9,7 km/h (2 Bft) 100,00 %
02.04.2019 01:08 9,2 C 8,9 C 7,8 C 75 % 1012,1 hPa 0,0 l/m 0 min 0 min 0 W/m 12,9 km/h (3 Bft) 100,00 %
02.04.2019 01:10 9,2 C 8,9 C 7,8 C 74 % 1012,1 hPa 0,0 l/m 0 min 0 min 0 W/m 12,9 km/h (3 Bft) 100,00 %
02.04.2019 01:12 9,3 C 8,9 C 7,8 C 74 % 1012,1 hPa 0,0 l/m 0 min 0 min 0 W/m 6,4 km/h (2 Bft) 100,00 %
02.04.2019 01:14 9,3 C 8,9 C 7,8 C 74 % 1012,1 hPa 0,0 l/m 0 min 0 min 0 W/m 6,4 km/h (2 Bft) 100,00 %
02.04.2019 01:16 9,3 C 8,9 C 7,8 C 74 % 1012,1 hPa 0,0 l/m 0 min 0 min 0 W/m 12,9 km/h (3 Bft) 100,00 %
02.04.2019 01:18 9,3 C 8,3 C 7,8 C 74 % 1012,1 hPa 0,0 l/m 0 min 0 min 0 W/m 6,4 km/h (2 Bft) 100,00 %
02.04.2019 01:20 9,3 C 8,3 C 7,2 C 74 % 1012,1 hPa 0,0 l/m 0 min 0 min 0 W/m 6,4 km/h (2 Bft) 100,00 %
02.04.2019 01:22 9,3 C 8,3 C 7,2 C 74 % 1012,0 hPa 0,0 l/m 0 min 0 min 0 W/m 6,4 km/h (2 Bft) 100,00 %
02.04.2019 01:24 9,3 C 8,3 C 7,8 C 74 % 1012,0 hPa 0,0 l/m 0 min 0 min 0 W/m 6,4 km/h (2 Bft) 97,92 %
02.04.2019 01:26 9,3 C 8,3 C 7,8 C 74 % 1011,9 hPa 0,0 l/m 0 min 0 min 0 W/m 6,4 km/h (2 Bft) 97,92 %
02.04.2019 01:28 9,3 C 8,3 C 7,2 C 74 % 1012,0 hPa 0,0 l/m 0 min 0 min 0 W/m 9,7 km/h (2 Bft) 97,87 %
02.04.2019 01:30 9,3 C 8,3 C 7,8 C 74 % 1012,0 hPa 0,0 l/m 0 min 0 min 0 W/m 9,7 km/h (2 Bft) 100,00 %
02.04.2019 01:32 9,3 C 8,3 C 7,2 C 73 % 1011,9 hPa 0,0 l/m 0 min 0 min 0 W/m 6,4 km/h (2 Bft) 100,00 %
02.04.2019 01:34 9,3 C 8,3 C 7,2 C 74 % 1012,0 hPa 0,0 l/m 0 min 0 min 0 W/m 6,4 km/h (2 Bft) 97,96 %
02.04.2019 01:36 9,2 C 8,3 C 7,2 C 74 % 1011,9 hPa 0,0 l/m 0 min 0 min 0 W/m 9,7 km/h (2 Bft) 97,92 %
02.04.2019 01:38 9,2 C 8,3 C 7,2 C 74 % 1011,8 hPa 0,0 l/m 0 min 0 min 0 W/m 6,4 km/h (2 Bft) 97,87 %
02.04.2019 01:40 9,2 C 8,3 C 7,2 C 74 % 1011,9 hPa 0,0 l/m 0 min 0 min 0 W/m 6,4 km/h (2 Bft) 95,74 %
02.04.2019 01:42 9,2 C 8,3 C 7,2 C 74 % 1011,8 hPa 0,0 l/m 0 min 0 min 0 W/m 9,7 km/h (2 Bft) 95,12 %
02.04.2019 01:44 9,2 C 8,3 C 7,2 C 74 % 1011,8 hPa 0,0 l/m 0 min 0 min 0 W/m 6,4 km/h (2 Bft) 95,74 %
02.04.2019 01:46 9,2 C 8,3 C 7,2 C 74 % 1011,8 hPa 0,0 l/m 0 min 0 min 0 W/m 6,4 km/h (2 Bft) 93,88 %
02.04.2019 01:48 9,2 C 8,3 C 7,2 C 74 % 1011,8 hPa 0,0 l/m 0 min 0 min 0 W/m 9,7 km/h (2 Bft) 95,83 %
02.04.2019 01:50 9,1 C 8,3 C 7,2 C 74 % 1011,8 hPa 0,0 l/m 0 min 0 min 0 W/m 3,2 km/h (1 Bft) 95,92 %
02.04.2019 01:52 9,1 C 8,3 C 7,2 C 74 % 1011,8 hPa 0,0 l/m 0 min 0 min 0 W/m 6,4 km/h (2 Bft) 95,74 %
02.04.2019 01:54 9,1 C 8,3 C 7,2 C 74 % 1011,7 hPa 0,0 l/m 0 min 0 min 0 W/m 9,7 km/h (2 Bft) 95,65 %
02.04.2019 01:56 9,1 C 8,3 C 7,2 C 74 % 1011,7 hPa 0,0 l/m 0 min 0 min 0 W/m 9,7 km/h (2 Bft) 95,24 %
02.04.2019 01:58 9,1 C 8,3 C 7,2 C 74 % 1011,6 hPa 0,0 l/m 0 min 0 min 0 W/m 9,7 km/h (2 Bft) 94,00 %
02.04.2019 02:00 9,1 C 8,3 C 7,2 C 74 % 1011,6 hPa 0,0 l/m 0 min 0 min 0 W/m 6,4 km/h (2 Bft) 93,48 %
02.04.2019 02:02 9,0 C 8,3 C 7,2 C 74 % 1011,6 hPa 0,0 l/m 0 min 0 min 0 W/m 9,7 km/h (2 Bft) 94,00 %
02.04.2019 02:04 9,0 C 8,3 C 7,2 C 74 % 1011,5 hPa 0,0 l/m 0 min 0 min 0 W/m 9,7 km/h (2 Bft) 95,74 %
02.04.2019 02:06 9,0 C 8,3 C 7,2 C 74 % 1011,4 hPa 0,0 l/m 0 min 0 min 0 W/m 9,7 km/h (2 Bft) 95,65 %
02.04.2019 02:08 8,9 C 8,3 C 7,2 C 74 % 1011,5 hPa 0,0 l/m 0 min 0 min 0 W/m 6,4 km/h (2 Bft) 93,62 %
02.04.2019 02:10 8,9 C 8,3 C 7,2 C 74 % 1011,4 hPa 0,0 l/m 0 min 0 min 0 W/m 6,4 km/h (2 Bft) 95,74 %
02.04.2019 02:12 8,9 C 8,3 C 7,2 C 74 % 1011,4 hPa 0,0 l/m 0 min 0 min 0 W/m 6,4 km/h (2 Bft) 95,24 %
02.04.2019 02:14 8,9 C 8,3 C 7,2 C 74 % 1011,4 hPa 0,0 l/m 0 min 0 min 0 W/m 6,4 km/h (2 Bft) 93,88 %
02.04.2019 02:16 8,9 C 7,8 C 7,2 C 74 % 1011,4 hPa 0,0 l/m 0 min 0 min 0 W/m 6,4 km/h (2 Bft) 91,84 %
02.04.2019 02:18 8,9 C 7,8 C 7,2 C 74 % 1011,4 hPa 0,0 l/m 0 min 0 min 0 W/m 9,7 km/h (2 Bft) 95,74 %
02.04.2019 02:20 8,9 C 7,8 C 7,2 C 74 % 1011,3 hPa 0,0 l/m 0 min 0 min 0 W/m 9,7 km/h (2 Bft) 93,62 %
02.04.2019 02:22 8,9 C 7,8 C 7,2 C 74 % 1011,3 hPa 0,0 l/m 0 min 0 min 0 W/m 9,7 km/h (2 Bft) 95,74 %
02.04.2019 02:24 8,8 C 7,8 C 7,2 C 74 % 1011,2 hPa 0,0 l/m 0 min 0 min 0 W/m 9,7 km/h (2 Bft) 95,24 %
02.04.2019 02:26 8,8 C 7,8 C 7,2 C 74 % 1011,2 hPa 0,0 l/m 0 min 0 min 0 W/m 6,4 km/h (2 Bft) 95,92 %
02.04.2019 02:28 8,8 C 7,8 C 7,2 C 74 % 1011,1 hPa 0,0 l/m 0 min 0 min 0 W/m 9,7 km/h (2 Bft) 93,88 %
02.04.2019 02:30 8,8 C 7,8 C 7,2 C 74 % 1011,1 hPa 0,0 l/m 0 min 0 min 0 W/m 6,4 km/h (2 Bft) 95,74 %
02.04.2019 02:32 8,8 C 7,8 C 7,2 C 74 % 1011,1 hPa 0,0 l/m 0 min 0 min 0 W/m 9,7 km/h (2 Bft) 95,24 %
02.04.2019 02:34 8,8 C 7,8 C 7,2 C 74 % 1011,1 hPa 0,0 l/m 0 min 0 min 0 W/m 9,7 km/h (2 Bft) 93,88 %
02.04.2019 02:36 8,8 C 7,8 C 7,2 C 74 % 1011,1 hPa 0,0 l/m 0 min 0 min 0 W/m 12,9 km/h (3 Bft) 95,83 %
02.04.2019 02:38 8,7 C 7,8 C 7,2 C 74 % 1011,0 hPa 0,0 l/m 0 min 0 min 0 W/m 12,9 km/h (3 Bft) 95,92 %
02.04.2019 02:40 8,7 C 7,8 C 7,2 C 74 % 1011,0 hPa 0,0 l/m 0 min 0 min 0 W/m 9,7 km/h (2 Bft) 93,48 %
02.04.2019 02:42 8,7 C 7,8 C 7,2 C 75 % 1011,0 hPa 0,0 l/m 0 min 0 min 0 W/m 9,7 km/h (2 Bft) 95,74 %
02.04.2019 02:44 8,7 C 7,8 C 7,2 C 74 % 1011,0 hPa 0,0 l/m 0 min 0 min 0 W/m 9,7 km/h (2 Bft) 95,74 %
02.04.2019 02:46 8,7 C 7,8 C 7,2 C 74 % 1010,9 hPa 0,0 l/m 0 min 0 min 0 W/m 9,7 km/h (2 Bft) 97,62 %
02.04.2019 02:48 8,7 C 7,8 C 7,2 C 75 % 1011,0 hPa 0,0 l/m 0 min 0 min 0 W/m 9,7 km/h (2 Bft) 93,75 %
02.04.2019 02:50 8,7 C 7,8 C 7,2 C 75 % 1010,9 hPa 0,0 l/m 0 min 0 min 0 W/m 9,7 km/h (2 Bft) 97,96 %
02.04.2019 02:52 8,7 C 7,8 C 7,2 C 75 % 1010,9 hPa 0,0 l/m 0 min 0 min 0 W/m 12,9 km/h (3 Bft) 93,75 %
02.04.2019 02:54 8,7 C 7,8 C 7,2 C 75 % 1010,9 hPa 0,0 l/m 0 min 0 min 0 W/m 9,7 km/h (2 Bft) 97,87 %
02.04.2019 02:56 8,7 C 7,8 C 7,2 C 75 % 1010,8 hPa 0,0 l/m 0 min 0 min 0 W/m 16,1 km/h (3 Bft) 97,87 %
02.04.2019 02:58 8,7 C 7,8 C 7,2 C 75 % 1010,9 hPa 0,0 l/m 0 min 0 min 0 W/m 9,7 km/h (2 Bft) 97,67 %
02.04.2019 03:00 8,7 C 7,8 C 7,2 C 75 % 1010,9 hPa 0,0 l/m 0 min 0 min 0 W/m 9,7 km/h (2 Bft) 97,83 %
02.04.2019 03:02 8,6 C 7,8 C 7,2 C 75 % 1010,8 hPa 0,0 l/m 0 min 0 min 0 W/m 12,9 km/h (3 Bft) 98,00 %
02.04.2019 03:04 8,7 C 7,8 C 7,2 C 75 % 1010,8 hPa 0,0 l/m 0 min 0 min 0 W/m 6,4 km/h (2 Bft) 100,00 %
02.04.2019 03:06 8,6 C 7,8 C 7,2 C 75 % 1010,8 hPa 0,0 l/m 0 min 0 min 0 W/m 16,1 km/h (3 Bft) 100,00 %
02.04.2019 03:08 8,6 C 7,8 C 7,2 C 75 % 1010,7 hPa 0,0 l/m 0 min 0 min 0 W/m 9,7 km/h (2 Bft) 100,00 %
02.04.2019 03:10 8,6 C 7,8 C 7,2 C 75 % 1010,7 hPa 0,0 l/m 0 min 0 min 0 W/m 12,9 km/h (3 Bft) 100,00 %
02.04.2019 03:12 8,6 C 7,8 C 7,2 C 75 % 1010,7 hPa 0,0 l/m 0 min 0 min 0 W/m 16,1 km/h (3 Bft) 97,87 %
02.04.2019 03:14 8,6 C 8,3 C 7,2 C 75 % 1010,7 hPa 0,0 l/m 0 min 0 min 0 W/m 9,7 km/h (2 Bft) 100,00 %
02.04.2019 03:16 8,6 C 8,3 C 7,2 C 75 % 1010,7 hPa 0,0 l/m 0 min 0 min 0 W/m 12,9 km/h (3 Bft) 97,96 %
02.04.2019 03:18 8,7 C 8,3 C 7,2 C 75 % 1010,7 hPa 0,0 l/m 0 min 0 min 0 W/m 16,1 km/h (3 Bft) 100,00 %
02.04.2019 03:20 8,7 C 7,8 C 7,2 C 75 % 1010,6 hPa 0,0 l/m 0 min 0 min 0 W/m 12,9 km/h (3 Bft) 100,00 %
02.04.2019 03:22 8,7 C 7,8 C 7,2 C 75 % 1010,7 hPa 0,0 l/m 0 min 0 min 0 W/m 9,7 km/h (2 Bft) 97,87 %
02.04.2019 03:24 8,7 C 7,8 C 7,2 C 75 % 1010,6 hPa 0,0 l/m 0 min 0 min 0 W/m 9,7 km/h (2 Bft) 100,00 %
02.04.2019 03:26 8,7 C 7,8 C 7,2 C 75 % 1010,6 hPa 0,0 l/m 0 min 0 min 0 W/m 12,9 km/h (3 Bft) 100,00 %
02.04.2019 03:28 8,7 C 7,8 C 7,2 C 75 % 1010,6 hPa 0,0 l/m 0 min 0 min 0 W/m 12,9 km/h (3 Bft) 100,00 %
02.04.2019 03:30 8,7 C 7,8 C 7,2 C 75 % 1010,5 hPa 0,0 l/m 0 min 0 min 0 W/m 12,9 km/h (3 Bft) 100,00 %
02.04.2019 03:32 8,7 C 7,8 C 7,2 C 75 % 1010,5 hPa 0,0 l/m 0 min 0 min 0 W/m 9,7 km/h (2 Bft) 100,00 %
02.04.2019 03:34 8,7 C 7,8 C 7,2 C 75 % 1010,5 hPa 0,0 l/m 0 min 0 min 0 W/m 6,4 km/h (2 Bft) 97,87 %
02.04.2019 03:36 8,6 C 7,8 C 7,2 C 75 % 1010,4 hPa 0,0 l/m 0 min 0 min 0 W/m 9,7 km/h (2 Bft) 100,00 %
02.04.2019 03:38 8,7 C 7,8 C 7,2 C 75 % 1010,4 hPa 0,0 l/m 0 min 0 min 0 W/m 9,7 km/h (2 Bft) 100,00 %
02.04.2019 03:40 8,6 C 7,8 C 7,2 C 75 % 1010,4 hPa 0,0 l/m 0 min 0 min 0 W/m 9,7 km/h (2 Bft) 100,00 %
02.04.2019 03:42 8,6 C 7,8 C 7,2 C 75 % 1010,4 hPa 0,0 l/m 0 min 0 min 0 W/m 9,7 km/h (2 Bft) 100,00 %
02.04.2019 03:44 8,6 C 7,8 C 7,2 C 75 % 1010,3 hPa 0,0 l/m 0 min 0 min 0 W/m 12,9 km/h (3 Bft) 97,92 %
02.04.2019 03:46 8,6 C 7,8 C 7,2 C 75 % 1010,4 hPa 0,0 l/m 0 min 0 min 0 W/m 12,9 km/h (3 Bft) 97,92 %
02.04.2019 03:48 8,6 C 7,8 C 7,2 C 75 % 1010,3 hPa 0,0 l/m 0 min 0 min 0 W/m 12,9 km/h (3 Bft) 100,00 %
02.04.2019 03:50 8,6 C 7,8 C 7,2 C 75 % 1010,3 hPa 0,0 l/m 0 min 0 min 0 W/m 19,3 km/h (3 Bft) 100,00 %
02.04.2019 03:52 8,6 C 7,8 C 7,2 C 75 % 1010,3 hPa 0,0 l/m 0 min 0 min 0 W/m 16,1 km/h (3 Bft) 97,67 %
02.04.2019 03:54 8,6 C 7,8 C 7,2 C 75 % 1010,2 hPa 0,0 l/m 0 min 0 min 0 W/m 16,1 km/h (3 Bft) 97,96 %
02.04.2019 03:56 8,5 C 7,8 C 7,2 C 75 % 1010,2 hPa 0,0 l/m 0 min 0 min 0 W/m 12,9 km/h (3 Bft) 95,83 %
02.04.2019 03:58 8,6 C 7,8 C 7,2 C 75 % 1010,1 hPa 0,0 l/m 0 min 0 min 0 W/m 16,1 km/h (3 Bft) 100,00 %
02.04.2019 04:00 8,5 C 7,8 C 7,2 C 75 % 1010,1 hPa 0,0 l/m 0 min 0 min 0 W/m 9,7 km/h (2 Bft) 97,87 %
02.04.2019 04:05 8,5 C 7,8 C 7,2 C 75 % 1010,0 hPa 0,0 l/m 0 min 0 min 0 W/m 12,9 km/h (3 Bft) 95,45 %
02.04.2019 04:06 8,5 C 7,8 C 6,7 C 75 % 1010,0 hPa 0,0 l/m 0 min 0 min 0 W/m 6,4 km/h (2 Bft) 96,67 %
02.04.2019 04:08 8,4 C 7,2 C 6,7 C 75 % 1010,0 hPa 0,0 l/m 0 min 0 min 0 W/m 16,1 km/h (3 Bft) 96,77 %
02.04.2019 04:10 8,4 C 7,2 C 6,7 C 75 % 1010,0 hPa 0,0 l/m 0 min 0 min 0 W/m 12,9 km/h (3 Bft) 95,83 %
02.04.2019 04:12 8,4 C 7,8 C 6,7 C 75 % 1009,9 hPa 0,0 l/m 0 min 0 min 0 W/m 9,7 km/h (2 Bft) 93,88 %
02.04.2019 04:14 8,4 C 7,8 C 6,7 C 75 % 1009,9 hPa 0,0 l/m 0 min 0 min 0 W/m 12,9 km/h (3 Bft) 97,92 %
02.04.2019 04:16 8,4 C 7,8 C 6,7 C 75 % 1009,9 hPa 0,0 l/m 0 min 0 min 0 W/m 16,1 km/h (3 Bft) 97,83 %
02.04.2019 04:18 8,4 C 7,8 C 6,7 C 75 % 1009,8 hPa 0,0 l/m 0 min 0 min 0 W/m 9,7 km/h (2 Bft) 95,74 %
02.04.2019 04:20 8,4 C 7,8 C 6,7 C 75 % 1009,8 hPa 0,0 l/m 0 min 0 min 0 W/m 12,9 km/h (3 Bft) 100,00 %
02.04.2019 04:22 8,3 C 7,8 C 6,7 C 75 % 1009,8 hPa 0,0 l/m 0 min 0 min 0 W/m 12,9 km/h (3 Bft) 95,83 %
02.04.2019 04:24 8,3 C 7,8 C 6,7 C 75 % 1009,8 hPa 0,0 l/m 0 min 0 min 0 W/m 9,7 km/h (2 Bft) 97,96 %
02.04.2019 04:26 8,3 C 7,8 C 6,7 C 75 % 1009,7 hPa 0,0 l/m 0 min 0 min 0 W/m 16,1 km/h (3 Bft) 97,92 %
02.04.2019 04:28 8,3 C 7,8 C 6,7 C 75 % 1009,7 hPa 0,0 l/m 0 min 0 min 0 W/m 16,1 km/h (3 Bft) 97,83 %
02.04.2019 04:30 8,3 C 7,8 C 6,7 C 75 % 1009,7 hPa 0,0 l/m 0 min 0 min 0 W/m 16,1 km/h (3 Bft) 97,87 %
02.04.2019 04:32 8,3 C 7,8 C 6,7 C 75 % 1009,6 hPa 0,0 l/m 0 min 0 min 0 W/m 12,9 km/h (3 Bft) 97,73 %
02.04.2019 04:34 8,3 C 7,8 C 6,7 C 75 % 1009,6 hPa 0,0 l/m 0 min 0 min 0 W/m 16,1 km/h (3 Bft) 97,92 %
02.04.2019 04:36 8,3 C 7,8 C 7,2 C 75 % 1009,5 hPa 0,0 l/m 0 min 0 min 0 W/m 16,1 km/h (3 Bft) 98,36 %
02.04.2019 04:38 8,3 C 7,8 C 7,2 C 75 % 1009,5 hPa 0,0 l/m 0 min 0 min 0 W/m 12,9 km/h (3 Bft) 97,14 %
02.04.2019 04:40 8,3 C 7,8 C 6,7 C 75 % 1009,5 hPa 0,0 l/m 0 min 0 min 0 W/m 12,9 km/h (3 Bft) 97,83 %
02.04.2019 04:42 8,3 C 7,8 C 6,7 C 75 % 1009,5 hPa 0,0 l/m 0 min 0 min 0 W/m 12,9 km/h (3 Bft) 97,62 %
02.04.2019 04:44 8,3 C 7,8 C 6,7 C 75 % 1009,5 hPa 0,0 l/m 0 min 0 min 0 W/m 16,1 km/h (3 Bft) 95,92 %
02.04.2019 04:46 8,3 C 7,8 C 6,7 C 75 % 1009,5 hPa 0,0 l/m 0 min 0 min 0 W/m 16,1 km/h (3 Bft) 100,00 %
02.04.2019 04:48 8,3 C 7,2 C 6,7 C 75 % 1009,5 hPa 0,0 l/m 0 min 0 min 0 W/m 12,9 km/h (3 Bft) 100,00 %
02.04.2019 04:50 8,3 C 7,2 C 6,7 C 75 % 1009,4 hPa 0,0 l/m 0 min 0 min 0 W/m 12,9 km/h (3 Bft) 100,00 %
02.04.2019 04:52 8,3 C 7,2 C 6,7 C 75 % 1009,4 hPa 0,0 l/m 0 min 0 min 0 W/m 16,1 km/h (3 Bft) 100,00 %
02.04.2019 04:54 8,2 C 7,2 C 6,7 C 75 % 1009,3 hPa 0,0 l/m 0 min 0 min 0 W/m 6,4 km/h (2 Bft) 100,00 %
02.04.2019 04:56 8,2 C 7,2 C 6,7 C 76 % 1009,3 hPa 0,0 l/m 0 min 0 min 0 W/m 12,9 km/h (3 Bft) 100,00 %
02.04.2019 04:58 8,2 C 7,2 C 6,7 C 76 % 1009,3 hPa 0,0 l/m 0 min 0 min 0 W/m 12,9 km/h (3 Bft) 97,96 %
02.04.2019 05:00 8,2 C 7,8 C 6,7 C 76 % 1009,3 hPa 0,0 l/m 0 min 0 min 0 W/m 12,9 km/h (3 Bft) 97,87 %
02.04.2019 05:02 8,2 C 7,2 C 6,7 C 76 % 1009,3 hPa 0,0 l/m 0 min 0 min 0 W/m 12,9 km/h (3 Bft) 100,00 %
02.04.2019 05:04 8,2 C 7,8 C 6,7 C 76 % 1009,2 hPa 0,0 l/m 0 min 0 min 0 W/m 12,9 km/h (3 Bft) 100,00 %
02.04.2019 05:05 8,2 C 7,8 C 6,7 C 76 % 1009,1 hPa 0,0 l/m 0 min 0 min 0 W/m 12,9 km/h (3 Bft) 100,00 %
02.04.2019 05:10 8,2 C 7,8 C 6,7 C 76 % 1009,0 hPa 0,0 l/m 0 min 0 min 0 W/m 19,3 km/h (3 Bft) 100,00 %
02.04.2019 05:12 8,2 C 7,8 C 6,7 C 76 % 1009,0 hPa 0,0 l/m 0 min 0 min 0 W/m 16,1 km/h (3 Bft) 96,97 %
02.04.2019 05:14 8,2 C 7,8 C 6,7 C 76 % 1009,0 hPa 0,0 l/m 0 min 0 min 0 W/m 16,1 km/h (3 Bft) 97,87 %
02.04.2019 05:19 8,2 C 7,2 C 6,7 C 76 % 1009,0 hPa 0,0 l/m 0 min 0 min 0 W/m 9,7 km/h (2 Bft) 95,31 %
02.04.2019 05:20 8,2 C 7,2 C 6,7 C 76 % 1009,0 hPa 0,0 l/m 0 min 0 min 0 W/m 12,9 km/h (3 Bft) 100,00 %
02.04.2019 05:22 8,2 C 7,2 C 6,7 C 76 % 1009,0 hPa 0,0 l/m 0 min 0 min 0 W/m 16,1 km/h (3 Bft) 97,87 %
02.04.2019 05:24 8,2 C 7,2 C 6,7 C 76 % 1008,9 hPa 0,0 l/m 0 min 0 min 0 W/m 9,7 km/h (2 Bft) 97,87 %
02.04.2019 05:26 8,2 C 7,2 C 6,7 C 76 % 1008,8 hPa 0,0 l/m 0 min 0 min 0 W/m 9,7 km/h (2 Bft) 95,74 %
02.04.2019 05:28 8,2 C 7,2 C 6,7 C 76 % 1008,8 hPa 0,0 l/m 0 min 0 min 0 W/m 19,3 km/h (3 Bft) 93,48 %
02.04.2019 05:30 8,2 C 7,2 C 6,7 C 76 % 1008,9 hPa 0,0 l/m 0 min 0 min 0 W/m 12,9 km/h (3 Bft) 95,74 %
02.04.2019 05:32 8,2 C 7,2 C 6,7 C 76 % 1008,8 hPa 0,0 l/m 0 min 0 min 0 W/m 12,9 km/h (3 Bft) 95,74 %
02.04.2019 05:34 8,2 C 7,2 C 6,7 C 76 % 1008,7 hPa 0,0 l/m 0 min 0 min 0 W/m 12,9 km/h (3 Bft) 93,62 %
02.04.2019 05:36 8,1 C 7,2 C 6,7 C 76 % 1008,6 hPa 0,0 l/m 0 min 0 min 0 W/m 9,7 km/h (2 Bft) 95,74 %
02.04.2019 05:38 8,2 C 7,2 C 6,7 C 76 % 1008,6 hPa 0,0 l/m 0 min 0 min 0 W/m 12,9 km/h (3 Bft) 95,74 %
02.04.2019 05:40 8,1 C 7,2 C 6,7 C 77 % 1008,7 hPa 0,0 l/m 0 min 0 min 0 W/m 12,9 km/h (3 Bft) 95,65 %
02.04.2019 05:42 8,1 C 7,2 C 6,7 C 77 % 1008,6 hPa 0,0 l/m 0 min 0 min 0 W/m 12,9 km/h (3 Bft) 95,74 %
02.04.2019 05:44 8,1 C 7,2 C 6,7 C 77 % 1008,6 hPa 0,0 l/m 0 min 0 min 0 W/m 12,9 km/h (3 Bft) 95,74 %
02.04.2019 05:46 8,1 C 7,2 C 6,7 C 77 % 1008,6 hPa 0,0 l/m 0 min 0 min 0 W/m 9,7 km/h (2 Bft) 93,62 %
02.04.2019 05:48 8,1 C 7,2 C 6,7 C 77 % 1008,6 hPa 0,0 l/m 0 min 0 min 0 W/m 9,7 km/h (2 Bft) 95,74 %
02.04.2019 05:50 8,1 C 7,2 C 6,7 C 77 % 1008,6 hPa 0,0 l/m 0 min 0 min 0 W/m 12,9 km/h (3 Bft) 93,62 %
02.04.2019 05:52 8,1 C 7,2 C 6,7 C 77 % 1008,5 hPa 0,0 l/m 0 min 0 min 0 W/m 9,7 km/h (2 Bft) 97,83 %
02.04.2019 05:54 8,1 C 7,2 C 6,7 C 77 % 1008,5 hPa 0,0 l/m 0 min 0 min 0 W/m 6,4 km/h (2 Bft) 97,87 %
02.04.2019 05:56 8,1 C 7,2 C 6,7 C 77 % 1008,5 hPa 0,0 l/m 0 min 0 min 0 W/m 16,1 km/h (3 Bft) 93,62 %
02.04.2019 05:58 8,0 C 7,2 C 6,7 C 78 % 1008,5 hPa 0,0 l/m 0 min 0 min 0 W/m 9,7 km/h (2 Bft) 97,87 %
02.04.2019 06:00 8,0 C 7,2 C 6,7 C 78 % 1008,4 hPa 0,0 l/m 0 min 0 min 0 W/m 16,1 km/h (3 Bft) 97,87 %
02.04.2019 06:02 8,0 C 7,2 C 6,7 C 77 % 1008,4 hPa 0,0 l/m 0 min 0 min 0 W/m 12,9 km/h (3 Bft) 95,74 %
02.04.2019 06:04 8,0 C 7,2 C 6,7 C 77 % 1008,3 hPa 0,0 l/m 0 min 0 min 0 W/m 12,9 km/h (3 Bft) 97,83 %
02.04.2019 06:08 8,0 C 7,2 C 6,7 C 78 % 1008,3 hPa 0,0 l/m 0 min 0 min 0 W/m 9,7 km/h (2 Bft) 96,81 %
02.04.2019 06:10 7,9 C 7,2 C 6,7 C 78 % 1008,4 hPa 0,0 l/m 0 min 0 min 0 W/m 12,9 km/h (3 Bft) 97,87 %
02.04.2019 06:12 7,9 C 7,2 C 6,7 C 78 % 1008,3 hPa 0,0 l/m 0 min 0 min 0 W/m 22,5 km/h (4 Bft) 97,87 %
02.04.2019 06:14 7,9 C 7,2 C 6,7 C 78 % 1008,2 hPa 0,0 l/m 0 min 0 min 0 W/m 12,9 km/h (3 Bft) 95,65 %
02.04.2019 06:16 7,9 C 7,2 C 6,7 C 78 % 1008,2 hPa 0,0 l/m 0 min 0 min 0 W/m 9,7 km/h (2 Bft) 97,87 %
02.04.2019 06:18 7,9 C 7,2 C 6,7 C 78 % 1008,2 hPa 0,0 l/m 0 min 0 min 0 W/m 12,9 km/h (3 Bft) 97,87 %
02.04.2019 06:20 7,9 C 7,2 C 6,7 C 78 % 1008,2 hPa 0,0 l/m 0 min 0 min 0 W/m 12,9 km/h (3 Bft) 95,74 %
02.04.2019 06:22 7,9 C 7,2 C 6,1 C 78 % 1008,1 hPa 0,0 l/m 0 min 0 min 0 W/m 9,7 km/h (2 Bft) 93,62 %
02.04.2019 06:24 7,9 C 7,2 C 6,1 C 78 % 1008,2 hPa 0,0 l/m 0 min 0 min 0 W/m 12,9 km/h (3 Bft) 95,74 %
02.04.2019 06:26 7,9 C 7,2 C 6,1 C 78 % 1008,1 hPa 0,0 l/m 0 min 0 min 0 W/m 9,7 km/h (2 Bft) 97,83 %
02.04.2019 06:28 7,9 C 7,2 C 6,1 C 78 % 1008,1 hPa 0,0 l/m 0 min 0 min 0 W/m 9,7 km/h (2 Bft) 97,87 %
02.04.2019 06:30 7,8 C 6,7 C 6,1 C 78 % 1008,1 hPa 0,0 l/m 0 min 0 min 0 W/m 12,9 km/h (3 Bft) 95,74 %
02.04.2019 06:32 7,8 C 7,2 C 6,1 C 78 % 1008,1 hPa 0,0 l/m 0 min 0 min 0 W/m 12,9 km/h (3 Bft) 97,87 %
02.04.2019 06:34 7,8 C 6,7 C 6,1 C 78 % 1008,2 hPa 0,0 l/m 0 min 0 min 0 W/m 9,7 km/h (2 Bft) 97,87 %
02.04.2019 06:36 7,8 C 6,7 C 6,1 C 78 % 1008,1 hPa 0,0 l/m 0 min 0 min 0 W/m 9,7 km/h (2 Bft) 97,87 %
02.04.2019 06:38 7,7 C 6,7 C 6,1 C 78 % 1008,1 hPa 0,0 l/m 0 min 0 min 0 W/m 12,9 km/h (3 Bft) 93,48 %
02.04.2019 06:40 7,7 C 6,7 C 6,1 C 78 % 1008,1 hPa 0,0 l/m 0 min 0 min 0 W/m 9,7 km/h (2 Bft) 95,74 %
02.04.2019 06:42 7,7 C 6,7 C 6,1 C 78 % 1008,1 hPa 0,0 l/m 0 min 0 min 0 W/m 9,7 km/h (2 Bft) 97,87 %
02.04.2019 06:44 7,7 C 6,7 C 6,1 C 78 % 1008,0 hPa 0,0 l/m 0 min 0 min 0 W/m 12,9 km/h (3 Bft) 97,87 %
02.04.2019 06:46 7,7 C 6,7 C 6,1 C 78 % 1008,0 hPa 0,0 l/m 0 min 0 min 0 W/m 12,9 km/h (3 Bft) 95,74 %
02.04.2019 06:48 7,7 C 6,7 C 6,1 C 78 % 1007,9 hPa 0,0 l/m 0 min 0 min 0 W/m 12,9 km/h (3 Bft) 97,87 %
02.04.2019 06:50 7,6 C 6,7 C 6,1 C 78 % 1008,0 hPa 0,0 l/m 0 min 0 min 0 W/m 16,1 km/h (3 Bft) 97,83 %
02.04.2019 06:52 7,6 C 6,7 C 6,1 C 79 % 1007,9 hPa 0,0 l/m 0 min 0 min 0 W/m 12,9 km/h (3 Bft) 97,87 %
02.04.2019 06:54 7,6 C 6,7 C 6,1 C 79 % 1007,9 hPa 0,0 l/m 0 min 0 min 0 W/m 12,9 km/h (3 Bft) 97,87 %
02.04.2019 06:56 7,6 C 7,2 C 6,1 C 79 % 1007,9 hPa 0,0 l/m 0 min 0 min 0 W/m 16,1 km/h (3 Bft) 87,23 %
02.04.2019 06:58 7,6 C 7,2 C 6,1 C 79 % 1007,9 hPa 0,0 l/m 0 min 0 min 0 W/m 12,9 km/h (3 Bft) 97,87 %
02.04.2019 07:00 7,6 C 7,2 C 6,1 C 79 % 1007,8 hPa 0,0 l/m 0 min 0 min 0 W/m 9,7 km/h (2 Bft) 95,74 %
02.04.2019 07:02 7,6 C 7,2 C 6,1 C 79 % 1007,9 hPa 0,0 l/m 0 min 0 min 0 W/m 12,9 km/h (3 Bft) 97,83 %
02.04.2019 07:04 7,6 C 7,2 C 6,1 C 79 % 1007,8 hPa 0,0 l/m 0 min 0 min 0 W/m 12,9 km/h (3 Bft) 97,87 %
02.04.2019 07:06 7,6 C 7,2 C 6,1 C 79 % 1007,8 hPa 0,0 l/m 0 min 0 min 4 W/m 19,3 km/h (3 Bft) 95,74 %
02.04.2019 07:08 7,6 C 7,2 C 6,1 C 79 % 1007,7 hPa 0,0 l/m 0 min 0 min 5 W/m 16,1 km/h (3 Bft) 97,87 %
02.04.2019 07:10 7,6 C 7,2 C 6,7 C 79 % 1007,7 hPa 0,0 l/m 0 min 0 min 5 W/m 12,9 km/h (3 Bft) 97,87 %
02.04.2019 07:12 7,6 C 7,2 C 6,7 C 79 % 1007,7 hPa 0,0 l/m 0 min 0 min 6 W/m 16,1 km/h (3 Bft) 97,83 %
02.04.2019 07:14 7,6 C 7,2 C 6,7 C 79 % 1007,7 hPa 0,0 l/m 0 min 0 min 9 W/m 16,1 km/h (3 Bft) 97,87 %
02.04.2019 07:16 7,7 C 7,2 C 6,7 C 79 % 1007,6 hPa 0,0 l/m 0 min 0 min 11 W/m 12,9 km/h (3 Bft) 100,00 %
02.04.2019 07:18 7,7 C 7,2 C 6,7 C 79 % 1007,6 hPa 0,0 l/m 0 min 0 min 12 W/m 19,3 km/h (3 Bft) 97,87 %
02.04.2019 07:20 7,7 C 7,2 C 6,7 C 79 % 1007,6 hPa 0,0 l/m 0 min 0 min 12 W/m 22,5 km/h (4 Bft) 100,00 %
02.04.2019 07:22 7,7 C 7,8 C 6,7 C 79 % 1007,7 hPa 0,0 l/m 0 min 0 min 11 W/m 12,9 km/h (3 Bft) 100,00 %
02.04.2019 07:24 7,8 C 7,8 C 6,7 C 79 % 1007,6 hPa 0,0 l/m 0 min 0 min 11 W/m 16,1 km/h (3 Bft) 100,00 %
02.04.2019 07:26 7,8 C 7,8 C 6,7 C 79 % 1007,5 hPa 0,0 l/m 0 min 0 min 12 W/m 16,1 km/h (3 Bft) 100,00 %
02.04.2019 07:28 7,8 C 7,8 C 6,7 C 79 % 1007,5 hPa 0,0 l/m 0 min 0 min 12 W/m 9,7 km/h (2 Bft) 100,00 %
02.04.2019 07:30 7,9 C 7,8 C 6,7 C 79 % 1007,5 hPa 0,0 l/m 0 min 0 min 14 W/m 12,9 km/h (3 Bft) 100,00 %
02.04.2019 07:32 7,9 C 7,8 C 7,2 C 79 % 1007,4 hPa 0,0 l/m 0 min 0 min 16 W/m 16,1 km/h (3 Bft) 100,00 %
02.04.2019 07:34 7,9 C 7,8 C 7,2 C 79 % 1007,4 hPa 0,0 l/m 0 min 0 min 17 W/m 9,7 km/h (2 Bft) 100,00 %
02.04.2019 07:36 8,0 C 7,8 C 7,2 C 79 % 1007,3 hPa 0,0 l/m 0 min 0 min 19 W/m 9,7 km/h (2 Bft) 97,83 %
02.04.2019 07:38 8,0 C 7,8 C 7,2 C 79 % 1007,4 hPa 0,0 l/m 0 min 0 min 20 W/m 12,9 km/h (3 Bft) 100,00 %
02.04.2019 07:40 8,0 C 7,8 C 7,2 C 79 % 1007,4 hPa 0,0 l/m 0 min 0 min 22 W/m 12,9 km/h (3 Bft) 100,00 %
02.04.2019 07:42 8,1 C 7,8 C 7,2 C 79 % 1007,4 hPa 0,0 l/m 0 min 0 min 25 W/m 12,9 km/h (3 Bft) 97,87 %
02.04.2019 07:44 8,1 C 7,8 C 7,2 C 79 % 1007,3 hPa 0,0 l/m 0 min 0 min 27 W/m 9,7 km/h (2 Bft) 100,00 %
02.04.2019 07:46 8,1 C 7,8 C 7,2 C 79 % 1007,3 hPa 0,0 l/m 0 min 0 min 30 W/m 16,1 km/h (3 Bft) 100,00 %
02.04.2019 07:48 8,1 C 7,8 C 7,2 C 79 % 1007,3 hPa 0,0 l/m 0 min 0 min 32 W/m 12,9 km/h (3 Bft) 97,83 %
02.04.2019 07:50 8,2 C 7,8 C 7,2 C 79 % 1007,5 hPa 0,0 l/m 0 min 0 min 35 W/m 19,3 km/h (3 Bft) 100,00 %
02.04.2019 07:52 8,2 C 7,8 C 7,2 C 79 % 1007,3 hPa 0,0 l/m 0 min 0 min 38 W/m 12,9 km/h (3 Bft) 95,74 %
02.04.2019 07:54 8,2 C 7,8 C 7,2 C 79 % 1007,3 hPa 0,0 l/m 0 min 0 min 41 W/m 12,9 km/h (3 Bft) 97,87 %
02.04.2019 07:56 8,2 C 7,8 C 7,2 C 79 % 1007,3 hPa 0,0 l/m 0 min 0 min 44 W/m 12,9 km/h (3 Bft) 93,62 %
02.04.2019 07:58 8,2 C 7,8 C 7,2 C 79 % 1007,3 hPa 0,0 l/m 0 min 0 min 49 W/m 12,9 km/h (3 Bft) 97,87 %
02.04.2019 08:00 8,3 C 8,3 C 7,2 C 79 % 1007,2 hPa 0,0 l/m 0 min 0 min 52 W/m 19,3 km/h (3 Bft) 97,83 %
02.04.2019 08:02 8,3 C 8,3 C 7,8 C 79 % 1007,3 hPa 0,0 l/m 0 min 0 min 57 W/m 12,9 km/h (3 Bft) 97,87 %
02.04.2019 08:04 8,3 C 8,3 C 7,8 C 79 % 1007,3 hPa 0,0 l/m 0 min 0 min 62 W/m 16,1 km/h (3 Bft) 95,74 %
02.04.2019 08:06 8,3 C 8,3 C 7,8 C 79 % 1007,1 hPa 0,0 l/m 0 min 0 min 66 W/m 19,3 km/h (3 Bft) 97,87 %
02.04.2019 08:08 8,3 C 8,3 C 7,8 C 79 % 1007,1 hPa 0,0 l/m 0 min 0 min 70 W/m 16,1 km/h (3 Bft) 97,87 %
02.04.2019 08:10 8,4 C 8,3 C 7,8 C 79 % 1007,1 hPa 0,0 l/m 0 min 0 min 70 W/m 19,3 km/h (3 Bft) 95,74 %
02.04.2019 08:12 8,4 C 8,3 C 7,8 C 78 % 1007,1 hPa 0,0 l/m 0 min 0 min 69 W/m 16,1 km/h (3 Bft) 95,65 %
02.04.2019 08:14 8,4 C 8,3 C 7,8 C 78 % 1007,0 hPa 0,0 l/m 0 min 0 min 71 W/m 16,1 km/h (3 Bft) 97,87 %
02.04.2019 08:16 8,5 C 8,3 C 7,8 C 78 % 1007,0 hPa 0,0 l/m 0 min 0 min 72 W/m 22,5 km/h (4 Bft) 95,74 %
02.04.2019 08:18 8,6 C 8,9 C 7,8 C 78 % 1007,0 hPa 0,0 l/m 0 min 0 min 72 W/m 19,3 km/h (3 Bft) 97,87 %
02.04.2019 08:20 8,6 C 8,9 C 8,3 C 78 % 1007,0 hPa 0,0 l/m 0 min 0 min 74 W/m 12,9 km/h (3 Bft) 97,87 %
02.04.2019 08:22 8,6 C 8,9 C 8,3 C 78 % 1007,0 hPa 0,0 l/m 0 min 0 min 76 W/m 9,7 km/h (2 Bft) 95,74 %
02.04.2019 08:24 8,7 C 8,9 C 8,3 C 78 % 1007,1 hPa 0,0 l/m 0 min 0 min 77 W/m 22,5 km/h (4 Bft) 97,83 %
02.04.2019 08:26 8,7 C 8,9 C 8,3 C 78 % 1007,0 hPa 0,0 l/m 0 min 0 min 77 W/m 16,1 km/h (3 Bft) 97,87 %
02.04.2019 08:28 8,7 C 8,9 C 8,3 C 78 % 1006,9 hPa 0,0 l/m 0 min 0 min 81 W/m 16,1 km/h (3 Bft) 97,87 %
02.04.2019 08:30 8,7 C 8,9 C 8,3 C 78 % 1006,9 hPa 0,0 l/m 0 min 0 min 85 W/m 22,5 km/h (4 Bft) 95,74 %
02.04.2019 08:32 8,8 C 8,9 C 8,3 C 78 % 1006,9 hPa 0,0 l/m 0 min 0 min 89 W/m 22,5 km/h (4 Bft) 97,87 %
02.04.2019 08:34 8,8 C 8,9 C 8,3 C 78 % 1006,8 hPa 0,0 l/m 0 min 0 min 91 W/m 12,9 km/h (3 Bft) 97,87 %
02.04.2019 08:36 8,9 C 8,9 C 8,3 C 78 % 1006,8 hPa 0,0 l/m 0 min 0 min 94 W/m 12,9 km/h (3 Bft) 97,83 %
02.04.2019 08:38 8,9 C 9,4 C 8,9 C 78 % 1006,7 hPa 0,0 l/m 0 min 0 min 98 W/m 22,5 km/h (4 Bft) 97,87 %
02.04.2019 08:40 9,0 C 9,4 C 8,9 C 78 % 1006,6 hPa 0,0 l/m 0 min 0 min 97 W/m 22,5 km/h (4 Bft) 97,87 %
02.04.2019 08:42 9,0 C 9,4 C 8,9 C 77 % 1006,7 hPa 0,0 l/m 0 min 0 min 97 W/m 19,3 km/h (3 Bft) 100,00 %
02.04.2019 08:44 9,1 C 9,4 C 8,9 C 77 % 1006,7 hPa 0,0 l/m 0 min 0 min 96 W/m 19,3 km/h (3 Bft) 100,00 %
02.04.2019 08:46 9,1 C 9,4 C 8,9 C 77 % 1006,6 hPa 0,0 l/m 0 min 0 min 101 W/m 25,7 km/h (4 Bft) 97,83 %
02.04.2019 08:48 9,2 C 9,4 C 8,9 C 77 % 1006,6 hPa 0,0 l/m 0 min 0 min 108 W/m 19,3 km/h (3 Bft) 97,87 %
02.04.2019 08:50 9,2 C 9,4 C 8,9 C 77 % 1006,6 hPa 0,0 l/m 0 min 0 min 111 W/m 19,3 km/h (3 Bft) 95,74 %
02.04.2019 08:52 9,3 C 9,4 C 8,9 C 77 % 1006,6 hPa 0,0 l/m 0 min 0 min 112 W/m 16,1 km/h (3 Bft) 100,00 %
02.04.2019 08:54 9,3 C 9,4 C 8,9 C 77 % 1006,5 hPa 0,0 l/m 0 min 0 min 116 W/m 25,7 km/h (4 Bft) 97,87 %
02.04.2019 08:56 9,3 C 10,0 C 9,4 C 77 % 1006,5 hPa 0,0 l/m 0 min 0 min 119 W/m 16,1 km/h (3 Bft) 100,00 %
02.04.2019 08:58 9,4 C 10,0 C 9,4 C 76 % 1006,5 hPa 0,0 l/m 0 min 0 min 116 W/m 25,7 km/h (4 Bft) 97,83 %
02.04.2019 09:00 9,4 C 10,0 C 9,4 C 76 % 1006,4 hPa 0,0 l/m 0 min 0 min 115 W/m 19,3 km/h (3 Bft) 100,00 %
02.04.2019 09:02 9,5 C 10,0 C 9,4 C 76 % 1006,4 hPa 0,0 l/m 0 min 0 min 117 W/m 29,0 km/h (5 Bft) 97,87 %
02.04.2019 09:04 9,6 C 10,0 C 9,4 C 76 % 1006,3 hPa 0,0 l/m 0 min 0 min 120 W/m 25,7 km/h (4 Bft) 97,87 %
02.04.2019 09:06 9,6 C 10,0 C 9,4 C 76 % 1006,4 hPa 0,0 l/m 0 min 0 min 118 W/m 22,5 km/h (4 Bft) 97,87 %
02.04.2019 09:08 9,7 C 10,0 C 9,4 C 76 % 1006,3 hPa 0,0 l/m 0 min 0 min 117 W/m 22,5 km/h (4 Bft) 95,74 %
02.04.2019 09:10 9,7 C 10,0 C 9,4 C 76 % 1006,3 hPa 0,0 l/m 0 min 0 min 115 W/m 22,5 km/h (4 Bft) 95,65 %
02.04.2019 09:12 9,8 C 10,0 C 9,4 C 76 % 1006,3 hPa 0,0 l/m 0 min 0 min 111 W/m 19,3 km/h (3 Bft) 93,62 %
02.04.2019 09:14 9,8 C 10,0 C 9,4 C 75 % 1006,2 hPa 0,0 l/m 0 min 0 min 109 W/m 25,7 km/h (4 Bft) 95,74 %
02.04.2019 09:16 9,9 C 10,6 C 9,4 C 75 % 1006,2 hPa 0,0 l/m 0 min 0 min 110 W/m 25,7 km/h (4 Bft) 91,49 %
02.04.2019 09:18 9,9 C 10,6 C 10,0 C 75 % 1006,2 hPa 0,0 l/m 0 min 0 min 115 W/m 12,9 km/h (3 Bft) 95,74 %
02.04.2019 09:20 10,0 C 10,6 C 10,0 C 75 % 1006,2 hPa 0,0 l/m 0 min 0 min 121 W/m 16,1 km/h (3 Bft) 95,74 %
02.04.2019 09:22 10,0 C 10,6 C 10,0 C 75 % 1006,2 hPa 0,0 l/m 0 min 0 min 126 W/m 29,0 km/h (5 Bft) 93,48 %
02.04.2019 09:24 10,1 C 10,6 C 10,0 C 75 % 1006,1 hPa 0,0 l/m 0 min 0 min 130 W/m 19,3 km/h (3 Bft) 95,74 %
02.04.2019 09:26 10,1 C 10,6 C 10,0 C 75 % 1006,1 hPa 0,0 l/m 0 min 0 min 134 W/m 25,7 km/h (4 Bft) 95,74 %
02.04.2019 09:28 10,2 C 10,6 C 10,0 C 74 % 1006,1 hPa 0,0 l/m 0 min 0 min 137 W/m 29,0 km/h (5 Bft) 95,74 %
02.04.2019 09:30 10,3 C 10,6 C 10,0 C 74 % 1006,1 hPa 0,0 l/m 0 min 0 min 142 W/m 25,7 km/h (4 Bft) 95,74 %
02.04.2019 09:32 10,3 C 11,1 C 10,0 C 74 % 1006,0 hPa 0,0 l/m 0 min 0 min 154 W/m 22,5 km/h (4 Bft) 95,74 %
02.04.2019 09:34 10,4 C 12,2 C 10,6 C 74 % 1006,0 hPa 0,0 l/m 0 min 0 min 169 W/m 12,9 km/h (3 Bft) 95,65 %
02.04.2019 09:36 10,4 C 12,8 C 10,6 C 74 % 1006,0 hPa 0,0 l/m 2 min 0 min 185 W/m 29,0 km/h (5 Bft) 95,74 %
02.04.2019 09:38 10,6 C 12,8 C 10,6 C 73 % 1006,0 hPa 0,0 l/m 2 min 0 min 198 W/m 32,2 km/h (5 Bft) 95,74 %
02.04.2019 09:40 10,7 C 12,8 C 11,1 C 73 % 1006,0 hPa 0,0 l/m 2 min 0 min 205 W/m 19,3 km/h (3 Bft) 91,49 %
02.04.2019 09:42 10,8 C 12,8 C 11,1 C 72 % 1005,9 hPa 0,0 l/m 2 min 0 min 215 W/m 32,2 km/h (5 Bft) 95,74 %
02.04.2019 09:44 10,9 C 12,8 C 11,1 C 72 % 1006,0 hPa 0,0 l/m 2 min 0 min 221 W/m 22,5 km/h (4 Bft) 95,74 %
02.04.2019 09:46 10,9 C 12,8 C 11,1 C 72 % 1005,8 hPa 0,0 l/m 2 min 0 min 223 W/m 25,7 km/h (4 Bft) 93,48 %
02.04.2019 09:48 11,1 C 13,3 C 11,7 C 72 % 1005,9 hPa 0,0 l/m 2 min 0 min 218 W/m 25,7 km/h (4 Bft) 95,74 %
02.04.2019 09:50 11,2 C 12,8 C 11,1 C 71 % 1005,9 hPa 0,0 l/m 2 min 0 min 208 W/m 35,4 km/h (5 Bft) 95,74 %
02.04.2019 09:52 11,2 C 12,8 C 11,1 C 71 % 1005,8 hPa 0,0 l/m 0 min 0 min 190 W/m 25,7 km/h (4 Bft) 91,49 %
02.04.2019 09:54 11,3 C 11,7 C 11,1 C 71 % 1005,8 hPa 0,0 l/m 0 min 0 min 166 W/m 29,0 km/h (5 Bft) 95,74 %
02.04.2019 09:56 11,3 C 11,7 C 11,1 C 70 % 1005,7 hPa 0,0 l/m 0 min 0 min 164 W/m 29,0 km/h (5 Bft) 97,83 %
02.04.2019 09:58 11,3 C 11,7 C 11,1 C 70 % 1005,7 hPa 0,0 l/m 0 min 0 min 173 W/m 29,0 km/h (5 Bft) 97,87 %
02.04.2019 10:00 11,3 C 12,2 C 11,7 C 70 % 1005,6 hPa 0,0 l/m 0 min 0 min 199 W/m 22,5 km/h (4 Bft) 95,74 %
02.04.2019 10:02 11,3 C 12,8 C 12,2 C 71 % 1005,6 hPa 0,0 l/m 2 min 0 min 246 W/m 16,1 km/h (3 Bft) 97,87 %
02.04.2019 10:04 11,3 C 12,8 C 12,2 C 70 % 1005,5 hPa 0,0 l/m 2 min 0 min 235 W/m 29,0 km/h (5 Bft) 97,87 %
02.04.2019 10:06 11,3 C 12,8 C 12,2 C 70 % 1005,5 hPa 0,0 l/m 2 min 0 min 255 W/m 29,0 km/h (5 Bft) 100,00 %
02.04.2019 10:08 11,4 C 12,8 C 12,8 C 70 % 1005,5 hPa 0,0 l/m 2 min 0 min 274 W/m 25,7 km/h (4 Bft) 100,00 %
02.04.2019 10:10 11,4 C 13,3 C 13,3 C 70 % 1005,5 hPa 0,0 l/m 2 min 0 min 330 W/m 29,0 km/h (5 Bft) 97,83 %
02.04.2019 10:12 11,5 C 13,3 C 13,3 C 70 % 1005,5 hPa 0,0 l/m 2 min 0 min 351 W/m 29,0 km/h (5 Bft) 100,00 %
02.04.2019 10:14 11,6 C 13,9 C 13,9 C 70 % 1005,4 hPa 0,0 l/m 2 min 0 min 369 W/m 32,2 km/h (5 Bft) 100,00 %
02.04.2019 10:16 11,6 C 13,9 C 14,4 C 70 % 1005,4 hPa 0,0 l/m 2 min 0 min 399 W/m 29,0 km/h (5 Bft) 97,87 %
02.04.2019 10:18 11,7 C 13,9 C 13,9 C 70 % 1005,4 hPa 0,0 l/m 2 min 0 min 399 W/m 32,2 km/h (5 Bft) 100,00 %
02.04.2019 10:20 11,8 C 14,4 C 14,4 C 70 % 1005,2 hPa 0,0 l/m 2 min 0 min 412 W/m 19,3 km/h (3 Bft) 97,83 %
02.04.2019 10:22 11,9 C 14,4 C 14,4 C 70 % 1005,2 hPa 0,0 l/m 2 min 0 min 389 W/m 25,7 km/h (4 Bft) 100,00 %
02.04.2019 10:24 11,9 C 14,4 C 15,0 C 70 % 1005,2 hPa 0,0 l/m 2 min 0 min 385 W/m 22,5 km/h (4 Bft) 97,87 %
02.04.2019 10:26 12,1 C 14,4 C 14,4 C 69 % 1005,2 hPa 0,0 l/m 2 min 0 min 366 W/m 25,7 km/h (4 Bft) 93,62 %
02.04.2019 10:28 12,2 C 15,0 C 15,0 C 69 % 1005,2 hPa 0,0 l/m 2 min 0 min 391 W/m 22,5 km/h (4 Bft) 97,87 %
02.04.2019 10:30 12,2 C 14,4 C 14,4 C 69 % 1005,2 hPa 0,0 l/m 2 min 0 min 408 W/m 35,4 km/h (5 Bft) 97,87 %
02.04.2019 10:32 12,3 C 14,4 C 15,0 C 68 % 1005,2 hPa 0,0 l/m 2 min 0 min 434 W/m 29,0 km/h (5 Bft) 97,83 %
02.04.2019 10:34 12,3 C 14,4 C 15,0 C 69 % 1005,2 hPa 0,0 l/m 2 min 0 min 425 W/m 19,3 km/h (3 Bft) 97,87 %
02.04.2019 10:36 12,4 C 15,0 C 15,6 C 69 % 1005,2 hPa 0,0 l/m 2 min 0 min 454 W/m 25,7 km/h (4 Bft) 95,74 %
02.04.2019 10:38 12,5 C 15,0 C 15,6 C 68 % 1005,2 hPa 0,0 l/m 2 min 0 min 457 W/m 32,2 km/h (5 Bft) 97,87 %
02.04.2019 10:40 12,6 C 15,0 C 15,0 C 68 % 1005,2 hPa 0,0 l/m 2 min 0 min 444 W/m 41,8 km/h (6 Bft) 95,74 %
02.04.2019 10:42 12,7 C 15,0 C 15,6 C 68 % 1005,1 hPa 0,0 l/m 2 min 0 min 424 W/m 19,3 km/h (3 Bft) 97,87 %
02.04.2019 10:44 12,7 C 15,0 C 15,0 C 68 % 1005,1 hPa 0,0 l/m 2 min 0 min 423 W/m 25,7 km/h (4 Bft) 97,83 %
02.04.2019 10:46 12,8 C 15,0 C 15,0 C 68 % 1005,1 hPa 0,0 l/m 2 min 0 min 445 W/m 32,2 km/h (5 Bft) 97,87 %
02.04.2019 10:48 12,9 C 15,6 C 15,6 C 68 % 1005,1 hPa 0,0 l/m 2 min 0 min 448 W/m 22,5 km/h (4 Bft) 97,87 %
02.04.2019 10:50 12,9 C 16,1 C 15,6 C 68 % 1005,1 hPa 0,0 l/m 2 min 0 min 467 W/m 22,5 km/h (4 Bft) 97,87 %
02.04.2019 10:52 13,0 C 16,1 C 16,1 C 67 % 1005,0 hPa 0,0 l/m 2 min 0 min 466 W/m 29,0 km/h (5 Bft) 97,87 %
02.04.2019 10:54 13,1 C 15,6 C 15,6 C 67 % 1004,9 hPa 0,0 l/m 2 min 0 min 451 W/m 25,7 km/h (4 Bft) 97,87 %
02.04.2019 10:56 13,2 C 15,6 C 15,6 C 67 % 1005,0 hPa 0,0 l/m 2 min 0 min 460 W/m 22,5 km/h (4 Bft) 95,65 %
02.04.2019 10:58 13,2 C 15,6 C 15,6 C 67 % 1004,9 hPa 0,0 l/m 2 min 0 min 471 W/m 25,7 km/h (4 Bft) 95,74 %
02.04.2019 11:00 13,3 C 15,6 C 15,6 C 67 % 1004,8 hPa 0,0 l/m 2 min 0 min 459 W/m 29,0 km/h (5 Bft) 97,87 %
02.04.2019 11:02 13,3 C 15,0 C 15,0 C 66 % 1004,8 hPa 0,0 l/m 2 min 0 min 450 W/m 25,7 km/h (4 Bft) 97,87 %
02.04.2019 11:04 13,3 C 15,6 C 15,6 C 66 % 1004,9 hPa 0,0 l/m 2 min 0 min 469 W/m 35,4 km/h (5 Bft) 97,87 %
02.04.2019 11:06 13,4 C 15,0 C 15,0 C 66 % 1005,1 hPa 0,0 l/m 2 min 0 min 408 W/m 25,7 km/h (4 Bft) 100,00 %
02.04.2019 11:08 13,4 C 15,0 C 14,4 C 66 % 1005,2 hPa 0,0 l/m 2 min 0 min 320 W/m 25,7 km/h (4 Bft) 100,00 %
02.04.2019 11:10 13,5 C 15,0 C 14,4 C 66 % 1005,3 hPa 0,0 l/m 2 min 0 min 363 W/m 22,5 km/h (4 Bft) 100,00 %
02.04.2019 11:12 13,6 C 15,0 C 15,0 C 67 % 1005,3 hPa 0,0 l/m 2 min 0 min 450 W/m 19,3 km/h (3 Bft) 100,00 %
02.04.2019 11:14 13,6 C 15,0 C 15,0 C 67 % 1005,1 hPa 0,0 l/m 2 min 0 min 348 W/m 29,0 km/h (5 Bft) 97,87 %
02.04.2019 11:16 13,6 C 15,0 C 15,6 C 67 % 1005,1 hPa 0,0 l/m 2 min 0 min 433 W/m 32,2 km/h (5 Bft) 100,00 %
02.04.2019 11:18 13,7 C 14,4 C 14,4 C 66 % 1005,2 hPa 0,0 l/m 2 min 0 min 334 W/m 25,7 km/h (4 Bft) 100,00 %
02.04.2019 11:20 13,6 C 13,9 C 13,9 C 66 % 1005,1 hPa 0,0 l/m 2 min 0 min 315 W/m 35,4 km/h (5 Bft) 100,00 %
02.04.2019 11:22 13,6 C 13,9 C 13,9 C 67 % 1005,1 hPa 0,0 l/m 2 min 0 min 309 W/m 25,7 km/h (4 Bft) 97,87 %
02.04.2019 11:24 13,6 C 13,3 C 13,9 C 67 % 1005,0 hPa 0,0 l/m 2 min 0 min 293 W/m 29,0 km/h (5 Bft) 100,00 %
02.04.2019 11:26 13,5 C 13,3 C 13,3 C 67 % 1005,0 hPa 0,0 l/m 0 min 0 min 282 W/m 25,7 km/h (4 Bft) 100,00 %
02.04.2019 11:28 13,4 C 13,3 C 13,3 C 67 % 1005,0 hPa 0,0 l/m 0 min 0 min 268 W/m 25,7 km/h (4 Bft) 100,00 %
02.04.2019 11:30 13,4 C 13,3 C 13,3 C 67 % 1005,1 hPa 0,0 l/m 0 min 0 min 267 W/m 29,0 km/h (5 Bft) 100,00 %
02.04.2019 11:32 13,4 C 13,3 C 13,3 C 68 % 1005,0 hPa 0,0 l/m 0 min 0 min 263 W/m 25,7 km/h (4 Bft) 100,00 %
02.04.2019 11:34 13,3 C 13,3 C 13,3 C 68 % 1005,0 hPa 0,0 l/m 0 min 0 min 256 W/m 29,0 km/h (5 Bft) 100,00 %
02.04.2019 11:36 13,3 C 13,3 C 13,3 C 68 % 1005,0 hPa 0,0 l/m 0 min 0 min 266 W/m 25,7 km/h (4 Bft) 100,00 %
02.04.2019 11:38 13,2 C 13,9 C 13,3 C 68 % 1005,0 hPa 0,0 l/m 0 min 0 min 277 W/m 19,3 km/h (3 Bft) 100,00 %
02.04.2019 11:40 13,2 C 13,9 C 13,3 C 68 % 1005,0 hPa 0,0 l/m 0 min 0 min 270 W/m 22,5 km/h (4 Bft) 100,00 %
02.04.2019 11:42 13,2 C 13,3 C 13,3 C 68 % 1005,0 hPa 0,0 l/m 0 min 0 min 263 W/m 16,1 km/h (3 Bft) 100,00 %
02.04.2019 11:44 13,2 C 13,3 C 13,3 C 68 % 1005,0 hPa 0,0 l/m 0 min 0 min 261 W/m 19,3 km/h (3 Bft) 100,00 %
02.04.2019 11:46 13,2 C 13,3 C 13,3 C 69 % 1005,0 hPa 0,0 l/m 0 min 0 min 254 W/m 19,3 km/h (3 Bft) 100,00 %
02.04.2019 11:48 13,2 C 13,3 C 13,3 C 69 % 1004,9 hPa 0,0 l/m 0 min 0 min 244 W/m 19,3 km/h (3 Bft) 97,87 %
02.04.2019 11:50 13,2 C 13,3 C 13,3 C 69 % 1004,9 hPa 0,0 l/m 0 min 0 min 235 W/m 19,3 km/h (3 Bft) 97,87 %
02.04.2019 11:52 13,2 C 13,3 C 13,3 C 69 % 1004,8 hPa 0,0 l/m 0 min 0 min 227 W/m 22,5 km/h (4 Bft) 100,00 %
02.04.2019 11:54 13,2 C 13,9 C 13,3 C 69 % 1004,9 hPa 0,0 l/m 0 min 0 min 221 W/m 22,5 km/h (4 Bft) 100,00 %
02.04.2019 11:56 13,3 C 13,3 C 13,3 C 69 % 1004,9 hPa 0,0 l/m 0 min 0 min 222 W/m 25,7 km/h (4 Bft) 97,87 %
02.04.2019 11:58 13,3 C 13,3 C 13,3 C 70 % 1004,8 hPa 0,0 l/m 0 min 0 min 228 W/m 22,5 km/h (4 Bft) 100,00 %
02.04.2019 12:00 13,3 C 13,3 C 13,3 C 70 % 1004,9 hPa 0,0 l/m 0 min 0 min 234 W/m 22,5 km/h (4 Bft) 100,00 %
02.04.2019 12:02 13,3 C 12,8 C 13,3 C 70 % 1004,8 hPa 0,0 l/m 0 min 0 min 230 W/m 29,0 km/h (5 Bft) 100,00 %
02.04.2019 12:04 13,3 C 13,3 C 13,3 C 70 % 1004,8 hPa 0,0 l/m 0 min 0 min 222 W/m 19,3 km/h (3 Bft) 100,00 %
02.04.2019 12:07 13,3 C 13,3 C 13,3 C 70 % 1004,7 hPa 0,0 l/m 0 min 0 min 214 W/m 29,0 km/h (5 Bft) 98,57 %
02.04.2019 12:08 13,3 C 13,3 C 13,3 C 70 % 1004,7 hPa 0,0 l/m 0 min 0 min 211 W/m 19,3 km/h (3 Bft) 100,00 %
02.04.2019 12:10 13,3 C 13,3 C 13,3 C 70 % 1004,7 hPa 0,0 l/m 0 min 2 min 212 W/m 16,1 km/h (3 Bft) 97,87 %
02.04.2019 12:12 13,3 C 13,3 C 13,3 C 71 % 1004,7 hPa 0,0 l/m 0 min 0 min 223 W/m 19,3 km/h (3 Bft) 97,87 %
02.04.2019 12:14 13,4 C 13,3 C 13,3 C 71 % 1004,7 hPa 0,0 l/m 0 min 0 min 240 W/m 22,5 km/h (4 Bft) 97,96 %
02.04.2019 12:16 13,4 C 13,9 C 13,9 C 71 % 1004,7 hPa 0,0 l/m 0 min 0 min 258 W/m 19,3 km/h (3 Bft) 95,74 %
02.04.2019 12:18 13,4 C 13,9 C 13,9 C 72 % 1004,6 hPa 0,0 l/m 0 min 0 min 272 W/m 12,9 km/h (3 Bft) 95,74 %
02.04.2019 12:20 13,4 C 14,4 C 13,9 C 72 % 1004,6 hPa 0,0 l/m 0 min 0 min 277 W/m 16,1 km/h (3 Bft) 97,87 %
02.04.2019 12:22 13,5 C 14,4 C 14,4 C 72 % 1004,7 hPa 0,0 l/m 0 min 2 min 272 W/m 16,1 km/h (3 Bft) 97,87 %
02.04.2019 12:24 13,6 C 14,4 C 14,4 C 72 % 1004,6 hPa 0,0 l/m 0 min 0 min 270 W/m 16,1 km/h (3 Bft) 97,83 %
02.04.2019 12:26 13,6 C 13,9 C 13,9 C 72 % 1004,6 hPa 0,0 l/m 0 min 0 min 274 W/m 19,3 km/h (3 Bft) 97,87 %
02.04.2019 12:28 13,6 C 14,4 C 13,9 C 72 % 1004,6 hPa 0,0 l/m 0 min 0 min 271 W/m 16,1 km/h (3 Bft) 95,74 %
02.04.2019 12:30 13,7 C 13,9 C 13,9 C 72 % 1004,6 hPa 0,0 l/m 0 min 0 min 248 W/m 25,7 km/h (4 Bft) 95,74 %
02.04.2019 12:32 13,7 C 13,3 C 13,9 C 73 % 1004,7 hPa 0,0 l/m 0 min 2 min 232 W/m 16,1 km/h (3 Bft) 91,49 %
02.04.2019 12:34 13,8 C 12,8 C 13,3 C 74 % 1004,7 hPa 0,0 l/m 0 min 2 min 224 W/m 25,7 km/h (4 Bft) 95,65 %
02.04.2019 12:36 13,8 C 12,8 C 12,8 C 74 % 1004,6 hPa 0,0 l/m 0 min 2 min 188 W/m 25,7 km/h (4 Bft) 97,87 %
02.04.2019 12:38 13,8 C 12,8 C 12,8 C 74 % 1004,6 hPa 0,0 l/m 0 min 2 min 174 W/m 22,5 km/h (4 Bft) 95,74 %
02.04.2019 12:40 13,8 C 12,2 C 12,8 C 74 % 1004,5 hPa 0,0 l/m 0 min 2 min 181 W/m 22,5 km/h (4 Bft) 95,74 %
02.04.2019 12:42 13,8 C 12,8 C 12,8 C 74 % 1004,5 hPa 0,0 l/m 0 min 2 min 170 W/m 16,1 km/h (3 Bft) 95,74 %
02.04.2019 12:44 13,8 C 12,2 C 12,2 C 74 % 1004,5 hPa 0,0 l/m 0 min 2 min 151 W/m 19,3 km/h (3 Bft) 97,87 %
02.04.2019 12:46 13,8 C 12,2 C 12,2 C 74 % 1004,5 hPa 0,0 l/m 0 min 2 min 124 W/m 12,9 km/h (3 Bft) 95,65 %
02.04.2019 12:48 13,8 C 12,2 C 11,7 C 75 % 1004,4 hPa 0,0 l/m 0 min 2 min 97 W/m 12,9 km/h (3 Bft) 97,87 %
02.04.2019 12:50 13,8 C 12,2 C 11,1 C 75 % 1004,3 hPa 0,0 l/m 0 min 2 min 82 W/m 12,9 km/h (3 Bft) 95,74 %
02.04.2019 12:52 13,8 C 11,7 C 10,6 C 75 % 1004,1 hPa 0,0 l/m 0 min 2 min 77 W/m 9,7 km/h (2 Bft) 95,74 %
02.04.2019 12:54 13,8 C 11,1 C 10,6 C 75 % 1004,3 hPa 0,0 l/m 0 min 2 min 75 W/m 12,9 km/h (3 Bft) 95,74 %
02.04.2019 12:56 13,8 C 11,1 C 10,0 C 75 % 1004,3 hPa 0,0 l/m 0 min 2 min 64 W/m 12,9 km/h (3 Bft) 95,74 %
02.04.2019 12:58 13,7 C 11,1 C 10,0 C 75 % 1004,3 hPa 0,0 l/m 0 min 2 min 61 W/m 19,3 km/h (3 Bft) 93,48 %
02.04.2019 13:00 13,6 C 10,6 C 10,0 C 76 % 1004,3 hPa 0,0 l/m 0 min 2 min 68 W/m 12,9 km/h (3 Bft) 91,49 %
02.04.2019 13:02 13,6 C 10,6 C 10,6 C 76 % 1004,2 hPa 0,0 l/m 0 min 2 min 83 W/m 9,7 km/h (2 Bft) 91,49 %
02.04.2019 13:04 13,6 C 10,6 C 10,6 C 77 % 1004,2 hPa 0,0 l/m 0 min 2 min 90 W/m 12,9 km/h (3 Bft) 91,49 %
02.04.2019 13:06 13,5 C 10,6 C 10,0 C 78 % 1004,3 hPa 0,2 l/m 0 min 2 min 83 W/m 9,7 km/h (2 Bft) 93,62 %
02.04.2019 13:08 13,4 C 10,0 C 10,0 C 78 % 1004,2 hPa 0,0 l/m 0 min 2 min 76 W/m 9,7 km/h (2 Bft) 95,74 %
02.04.2019 13:10 13,4 C 10,0 C 10,0 C 79 % 1004,2 hPa 0,0 l/m 0 min 2 min 74 W/m 12,9 km/h (3 Bft) 95,65 %
02.04.2019 13:12 13,4 C 10,0 C 10,0 C 79 % 1004,3 hPa 0,0 l/m 0 min 2 min 75 W/m 16,1 km/h (3 Bft) 93,62 %
02.04.2019 13:14 13,3 C 10,0 C 10,0 C 80 % 1004,3 hPa 0,0 l/m 0 min 2 min 67 W/m 12,9 km/h (3 Bft) 91,49 %
02.04.2019 13:16 13,3 C 10,0 C 10,0 C 81 % 1004,3 hPa 0,0 l/m 0 min 2 min 69 W/m 9,7 km/h (2 Bft) 91,49 %
02.04.2019 13:18 13,2 C 10,0 C 10,0 C 81 % 1004,4 hPa 0,2 l/m 0 min 2 min 75 W/m 9,7 km/h (2 Bft) 95,74 %
02.04.2019 13:20 13,2 C 10,0 C 10,0 C 82 % 1004,4 hPa 0,0 l/m 0 min 2 min 84 W/m 9,7 km/h (2 Bft) 95,74 %
02.04.2019 13:22 13,1 C 10,0 C 10,0 C 82 % 1004,4 hPa 0,0 l/m 0 min 2 min 77 W/m 16,1 km/h (3 Bft) 95,65 %
02.04.2019 13:24 13,1 C 10,0 C 9,4 C 82 % 1004,3 hPa 0,0 l/m 0 min 2 min 83 W/m 12,9 km/h (3 Bft) 93,22 %
02.04.2019 13:26 12,9 C 10,0 C 9,4 C 83 % 1004,3 hPa 0,2 l/m 0 min 2 min 92 W/m 9,7 km/h (2 Bft) 93,62 %
02.04.2019 13:28 12,9 C 10,0 C 10,0 C 84 % 1004,3 hPa 0,0 l/m 0 min 2 min 91 W/m 6,4 km/h (2 Bft) 95,74 %
02.04.2019 13:30 12,8 C 10,0 C 10,0 C 84 % 1004,3 hPa 0,0 l/m 0 min 2 min 91 W/m 12,9 km/h (3 Bft) 95,65 %
02.04.2019 13:32 12,7 C 10,0 C 9,4 C 84 % 1004,3 hPa 0,0 l/m 0 min 2 min 89 W/m 12,9 km/h (3 Bft) 95,74 %
02.04.2019 13:34 12,7 C 10,0 C 9,4 C 85 % 1004,3 hPa 0,2 l/m 0 min 2 min 94 W/m 12,9 km/h (3 Bft) 93,62 %
02.04.2019 13:36 12,6 C 10,0 C 9,4 C 85 % 1004,3 hPa 0,0 l/m 0 min 2 min 99 W/m 16,1 km/h (3 Bft) 93,22 %
02.04.2019 13:38 12,4 C 10,0 C 9,4 C 86 % 1004,3 hPa 0,0 l/m 0 min 2 min 93 W/m 16,1 km/h (3 Bft) 97,14 %
02.04.2019 13:40 12,4 C 10,0 C 9,4 C 86 % 1004,3 hPa 0,2 l/m 0 min 2 min 78 W/m 12,9 km/h (3 Bft) 97,87 %
02.04.2019 13:42 12,3 C 10,0 C 9,4 C 86 % 1004,3 hPa 0,0 l/m 0 min 2 min 75 W/m 12,9 km/h (3 Bft) 97,83 %
02.04.2019 13:44 12,3 C 10,0 C 9,4 C 87 % 1004,3 hPa 0,0 l/m 0 min 2 min 83 W/m 9,7 km/h (2 Bft) 95,74 %
02.04.2019 13:46 12,2 C 10,0 C 9,4 C 87 % 1004,2 hPa 0,0 l/m 0 min 2 min 88 W/m 9,7 km/h (2 Bft) 97,87 %
02.04.2019 13:48 12,2 C 10,0 C 9,4 C 87 % 1004,2 hPa 0,0 l/m 0 min 2 min 93 W/m 6,4 km/h (2 Bft) 93,62 %
02.04.2019 13:50 12,1 C 10,0 C 9,4 C 87 % 1004,2 hPa 0,0 l/m 0 min 2 min 94 W/m 9,7 km/h (2 Bft) 97,87 %
02.04.2019 13:52 12,0 C 10,0 C 9,4 C 88 % 1004,2 hPa 0,2 l/m 0 min 2 min 93 W/m 3,2 km/h (1 Bft) 100,00 %
02.04.2019 13:54 11,9 C 10,0 C 9,4 C 88 % 1004,1 hPa 0,2 l/m 0 min 2 min 82 W/m 6,4 km/h (2 Bft) 97,83 %
02.04.2019 13:56 11,9 C 10,0 C 9,4 C 88 % 1004,0 hPa 0,0 l/m 0 min 2 min 76 W/m 9,7 km/h (2 Bft) 100,00 %
02.04.2019 13:58 11,9 C 10,0 C 9,4 C 88 % 1003,9 hPa 0,0 l/m 0 min 2 min 74 W/m 9,7 km/h (2 Bft) 100,00 %
02.04.2019 14:00 11,8 C 9,4 C 9,4 C 89 % 1003,9 hPa 0,2 l/m 0 min 2 min 60 W/m 12,9 km/h (3 Bft) 100,00 %
02.04.2019 14:02 11,8 C 9,4 C 9,4 C 89 % 1003,8 hPa 0,0 l/m 0 min 2 min 49 W/m 9,7 km/h (2 Bft) 97,87 %
02.04.2019 14:04 11,7 C 9,4 C 9,4 C 89 % 1003,7 hPa 0,2 l/m 0 min 2 min 46 W/m 16,1 km/h (3 Bft) 97,87 %
02.04.2019 14:06 11,7 C 9,4 C 9,4 C 89 % 1003,8 hPa 0,0 l/m 0 min 2 min 42 W/m 9,7 km/h (2 Bft) 100,00 %
02.04.2019 14:08 11,6 C 9,4 C 8,9 C 89 % 1003,7 hPa 0,0 l/m 0 min 2 min 39 W/m 12,9 km/h (3 Bft) 100,00 %
02.04.2019 14:10 11,5 C 9,4 C 8,9 C 89 % 1003,6 hPa 0,0 l/m 0 min 2 min 37 W/m 12,9 km/h (3 Bft) 97,87 %
02.04.2019 14:12 11,4 C 9,4 C 8,9 C 90 % 1003,6 hPa 0,0 l/m 0 min 2 min 33 W/m 19,3 km/h (3 Bft) 97,87 %
02.04.2019 14:14 11,3 C 9,4 C 8,9 C 90 % 1003,6 hPa 0,0 l/m 0 min 2 min 34 W/m 9,7 km/h (2 Bft) 100,00 %
02.04.2019 14:16 11,3 C 9,4 C 8,9 C 90 % 1003,6 hPa 0,0 l/m 0 min 2 min 39 W/m 6,4 km/h (2 Bft) 100,00 %
02.04.2019 14:18 11,2 C 9,4 C 8,9 C 90 % 1003,6 hPa 0,2 l/m 0 min 2 min 45 W/m 6,4 km/h (2 Bft) 100,00 %
02.04.2019 14:20 11,2 C 9,4 C 8,9 C 90 % 1003,6 hPa 0,0 l/m 0 min 2 min 47 W/m 9,7 km/h (2 Bft) 100,00 %
02.04.2019 14:22 11,1 C 9,4 C 8,9 C 91 % 1003,6 hPa 0,0 l/m 0 min 2 min 48 W/m 6,4 km/h (2 Bft) 100,00 %
02.04.2019 14:24 11,1 C 9,4 C 8,9 C 91 % 1003,6 hPa 0,0 l/m 0 min 2 min 44 W/m 6,4 km/h (2 Bft) 100,00 %
02.04.2019 14:26 11,1 C 9,4 C 8,9 C 91 % 1003,4 hPa 0,0 l/m 0 min 2 min 43 W/m 3,2 km/h (1 Bft) 100,00 %
02.04.2019 14:28 11,0 C 9,4 C 9,4 C 91 % 1003,4 hPa 0,0 l/m 0 min 2 min 52 W/m 3,2 km/h (1 Bft) 97,87 %
02.04.2019 14:30 11,0 C 9,4 C 9,4 C 91 % 1003,4 hPa 0,0 l/m 0 min 0 min 69 W/m 9,7 km/h (2 Bft) 100,00 %
02.04.2019 14:32 11,0 C 9,4 C 9,4 C 91 % 1003,4 hPa 0,0 l/m 0 min 0 min 85 W/m 16,1 km/h (3 Bft) 100,00 %
02.04.2019 14:34 11,0 C 9,4 C 9,4 C 92 % 1003,4 hPa 0,0 l/m 0 min 0 min 85 W/m 6,4 km/h (2 Bft) 97,87 %
02.04.2019 14:36 11,0 C 9,4 C 9,4 C 92 % 1003,3 hPa 0,0 l/m 0 min 0 min 85 W/m 3,2 km/h (1 Bft) 100,00 %
02.04.2019 14:38 10,9 C 10,0 C 9,4 C 92 % 1003,3 hPa 0,0 l/m 0 min 0 min 84 W/m 3,2 km/h (1 Bft) 100,00 %
02.04.2019 14:40 11,0 C 10,0 C 9,4 C 92 % 1003,2 hPa 0,0 l/m 0 min 0 min 84 W/m 3,2 km/h (1 Bft) 100,00 %
02.04.2019 14:42 11,0 C 10,0 C 9,4 C 92 % 1003,2 hPa 0,0 l/m 0 min 0 min 90 W/m 6,4 km/h (2 Bft) 97,83 %
02.04.2019 14:44 11,0 C 10,0 C 9,4 C 92 % 1003,1 hPa 0,0 l/m 0 min 2 min 95 W/m 6,4 km/h (2 Bft) 100,00 %
02.04.2019 14:46 11,0 C 10,0 C 9,4 C 92 % 1003,2 hPa 0,2 l/m 0 min 2 min 101 W/m 16,1 km/h (3 Bft) 100,00 %
02.04.2019 14:48 11,0 C 10,0 C 9,4 C 92 % 1003,1 hPa 0,0 l/m 0 min 2 min 95 W/m 16,1 km/h (3 Bft) 100,00 %
02.04.2019 14:50 11,0 C 9,4 C 9,4 C 93 % 1003,1 hPa 0,0 l/m 0 min 2 min 90 W/m 12,9 km/h (3 Bft) 100,00 %
02.04.2019 14:52 11,0 C 9,4 C 9,4 C 93 % 1003,1 hPa 0,0 l/m 0 min 2 min 93 W/m 3,2 km/h (1 Bft) 100,00 %
02.04.2019 14:54 11,0 C 10,0 C 9,4 C 93 % 1002,9 hPa 0,0 l/m 0 min 2 min 99 W/m 9,7 km/h (2 Bft) 100,00 %
02.04.2019 14:56 11,0 C 10,0 C 9,4 C 93 % 1002,9 hPa 0,0 l/m 0 min 2 min 101 W/m 9,7 km/h (2 Bft) 100,00 %
02.04.2019 14:58 11,0 C 10,0 C 9,4 C 93 % 1002,8 hPa 0,0 l/m 0 min 2 min 86 W/m 6,4 km/h (2 Bft) 100,00 %
02.04.2019 15:00 11,0 C 9,4 C 9,4 C 93 % 1002,7 hPa 0,0 l/m 0 min 0 min 77 W/m 3,2 km/h (1 Bft) 100,00 %
02.04.2019 15:02 11,0 C 10,0 C 9,4 C 93 % 1002,7 hPa 0,0 l/m 0 min 0 min 69 W/m 3,2 km/h (1 Bft) 100,00 %
02.04.2019 15:04 11,0 C 10,0 C 9,4 C 93 % 1002,8 hPa 0,0 l/m 0 min 0 min 62 W/m 3,2 km/h (1 Bft) 100,00 %
02.04.2019 15:06 11,1 C 10,0 C 9,4 C 93 % 1002,8 hPa 0,0 l/m 0 min 2 min 63 W/m 16,1 km/h (3 Bft) 96,61 %
02.04.2019 15:08 11,1 C 10,0 C 9,4 C 93 % 1002,7 hPa 0,0 l/m 0 min 2 min 62 W/m 6,4 km/h (2 Bft) 97,14 %
02.04.2019 15:10 11,0 C 9,4 C 9,4 C 93 % 1002,7 hPa 0,0 l/m 0 min 2 min 62 W/m 16,1 km/h (3 Bft) 97,87 %
02.04.2019 15:12 11,0 C 9,4 C 9,4 C 93 % 1002,7 hPa 0,0 l/m 0 min 2 min 61 W/m 9,7 km/h (2 Bft) 100,00 %
02.04.2019 15:14 11,0 C 9,4 C 9,4 C 93 % 1002,6 hPa 0,0 l/m 0 min 0 min 54 W/m 12,9 km/h (3 Bft) 100,00 %
02.04.2019 15:16 11,0 C 9,4 C 9,4 C 93 % 1002,6 hPa 0,0 l/m 0 min 0 min 46 W/m 12,9 km/h (3 Bft) 97,83 %
02.04.2019 15:18 11,0 C 9,4 C 9,4 C 93 % 1002,6 hPa 0,0 l/m 0 min 0 min 46 W/m 9,7 km/h (2 Bft) 97,87 %
02.04.2019 15:20 11,0 C 9,4 C 9,4 C 93 % 1002,6 hPa 0,0 l/m 0 min 0 min 48 W/m 6,4 km/h (2 Bft) 97,87 %
02.04.2019 15:22 10,9 C 9,4 C 9,4 C 93 % 1002,5 hPa 0,0 l/m 0 min 0 min 57 W/m 6,4 km/h (2 Bft) 97,87 %
02.04.2019 15:24 10,9 C 9,4 C 9,4 C 93 % 1002,5 hPa 0,0 l/m 0 min 0 min 62 W/m 3,2 km/h (1 Bft) 95,74 %
02.04.2019 15:26 10,9 C 9,4 C 9,4 C 93 % 1002,5 hPa 0,0 l/m 0 min 2 min 64 W/m 9,7 km/h (2 Bft) 97,87 %
02.04.2019 15:28 10,9 C 9,4 C 9,4 C 93 % 1002,4 hPa 0,0 l/m 0 min 0 min 77 W/m 9,7 km/h (2 Bft) 97,83 %
02.04.2019 15:30 10,9 C 9,4 C 9,4 C 93 % 1002,4 hPa 0,0 l/m 0 min 0 min 72 W/m 19,3 km/h (3 Bft) 97,87 %
02.04.2019 15:32 10,9 C 9,4 C 9,4 C 93 % 1002,4 hPa 0,0 l/m 0 min 0 min 62 W/m 3,2 km/h (1 Bft) 97,87 %
02.04.2019 15:34 10,9 C 10,0 C 9,4 C 93 % 1002,3 hPa 0,0 l/m 0 min 0 min 52 W/m 9,7 km/h (2 Bft) 97,87 %
02.04.2019 15:36 10,9 C 9,4 C 9,4 C 94 % 1002,3 hPa 0,0 l/m 0 min 0 min 55 W/m 16,1 km/h (3 Bft) 98,28 %
02.04.2019 15:38 10,9 C 10,0 C 9,4 C 94 % 1002,2 hPa 0,0 l/m 0 min 0 min 55 W/m 6,4 km/h (2 Bft) 97,14 %
02.04.2019 15:40 10,9 C 9,4 C 9,4 C 94 % 1002,3 hPa 0,0 l/m 0 min 0 min 60 W/m 9,7 km/h (2 Bft) 97,87 %
02.04.2019 15:42 10,9 C 9,4 C 9,4 C 94 % 1002,3 hPa 0,0 l/m 0 min 0 min 64 W/m 16,1 km/h (3 Bft) 97,87 %
02.04.2019 15:44 10,9 C 10,0 C 9,4 C 94 % 1002,2 hPa 0,0 l/m 0 min 0 min 71 W/m 12,9 km/h (3 Bft) 97,87 %
02.04.2019 15:46 10,9 C 10,0 C 9,4 C 94 % 1002,2 hPa 0,0 l/m 0 min 0 min 73 W/m 12,9 km/h (3 Bft) 97,87 %
02.04.2019 15:48 10,9 C 10,0 C 9,4 C 94 % 1002,1 hPa 0,0 l/m 0 min 0 min 67 W/m 12,9 km/h (3 Bft) 97,87 %
02.04.2019 15:50 10,9 C 10,0 C 9,4 C 94 % 1002,1 hPa 0,0 l/m 0 min 0 min 74 W/m 3,2 km/h (1 Bft) 97,83 %
02.04.2019 15:52 10,9 C 10,0 C 9,4 C 94 % 1001,9 hPa 0,0 l/m 0 min 0 min 81 W/m 9,7 km/h (2 Bft) 95,74 %
02.04.2019 15:54 10,9 C 10,0 C 9,4 C 94 % 1001,9 hPa 0,0 l/m 0 min 0 min 97 W/m 3,2 km/h (1 Bft) 95,74 %
02.04.2019 15:56 10,9 C 10,0 C 10,0 C 94 % 1001,9 hPa 0,0 l/m 0 min 0 min 116 W/m 9,7 km/h (2 Bft) 89,36 %
02.04.2019 15:58 10,9 C 10,0 C 10,0 C 94 % 1001,8 hPa 0,0 l/m 0 min 0 min 115 W/m 9,7 km/h (2 Bft) 93,62 %
02.04.2019 16:00 10,9 C 10,0 C 9,4 C 94 % 1001,8 hPa 0,0 l/m 0 min 0 min 81 W/m 6,4 km/h (2 Bft) 93,62 %
02.04.2019 16:02 10,9 C 10,0 C 9,4 C 94 % 1001,8 hPa 0,0 l/m 0 min 0 min 61 W/m 6,4 km/h (2 Bft) 93,48 %
02.04.2019 16:04 10,9 C 10,0 C 9,4 C 94 % 1001,8 hPa 0,0 l/m 0 min 0 min 62 W/m 3,2 km/h (1 Bft) 93,62 %
02.04.2019 16:06 10,9 C 10,0 C 9,4 C 94 % 1001,7 hPa 0,0 l/m 0 min 0 min 63 W/m 3,2 km/h (1 Bft) 94,92 %
02.04.2019 16:08 10,9 C 10,0 C 9,4 C 94 % 1001,7 hPa 0,0 l/m 0 min 0 min 70 W/m 6,4 km/h (2 Bft) 94,29 %
02.04.2019 16:10 11,0 C 10,0 C 9,4 C 94 % 1001,7 hPa 0,0 l/m 0 min 0 min 84 W/m 6,4 km/h (2 Bft) 93,62 %
02.04.2019 16:12 11,0 C 10,6 C 10,0 C 94 % 1001,8 hPa 0,0 l/m 0 min 0 min 97 W/m 0,0 km/h (0 Bft) 93,62 %
02.04.2019 16:14 11,0 C 10,6 C 10,0 C 94 % 1001,8 hPa 0,0 l/m 0 min 0 min 88 W/m 0,0 km/h (0 Bft) 93,48 %
02.04.2019 16:16 11,0 C 10,6 C 10,0 C 94 % 1001,7 hPa 0,0 l/m 0 min 0 min 77 W/m 0,0 km/h (0 Bft) 93,62 %
02.04.2019 16:18 11,0 C 10,6 C 10,0 C 94 % 1001,7 hPa 0,0 l/m 0 min 0 min 74 W/m 3,2 km/h (1 Bft) 95,74 %
02.04.2019 16:20 11,0 C 10,6 C 9,4 C 94 % 1001,7 hPa 0,0 l/m 0 min 0 min 73 W/m 9,7 km/h (2 Bft) 95,74 %
02.04.2019 16:22 11,1 C 10,6 C 9,4 C 94 % 1001,6 hPa 0,0 l/m 0 min 0 min 75 W/m 6,4 km/h (2 Bft) 93,62 %
02.04.2019 16:24 11,1 C 10,6 C 10,0 C 94 % 1001,6 hPa 0,0 l/m 0 min 0 min 79 W/m 3,2 km/h (1 Bft) 95,74 %
02.04.2019 16:26 11,1 C 10,6 C 10,0 C 94 % 1001,6 hPa 0,0 l/m 0 min 0 min 103 W/m 9,7 km/h (2 Bft) 95,65 %
02.04.2019 16:28 11,1 C 10,6 C 10,0 C 94 % 1001,4 hPa 0,0 l/m 0 min 0 min 118 W/m 3,2 km/h (1 Bft) 95,74 %
02.04.2019 16:30 11,1 C 10,6 C 10,0 C 93 % 1001,5 hPa 0,0 l/m 0 min 0 min 124 W/m 9,7 km/h (2 Bft) 93,62 %
02.04.2019 16:32 11,2 C 10,6 C 10,0 C 93 % 1001,4 hPa 0,0 l/m 0 min 0 min 109 W/m 12,9 km/h (3 Bft) 95,74 %
02.04.2019 16:34 11,2 C 10,6 C 10,0 C 93 % 1001,4 hPa 0,0 l/m 0 min 0 min 104 W/m 3,2 km/h (1 Bft) 95,74 %
02.04.2019 16:36 11,2 C 10,6 C 10,0 C 93 % 1001,4 hPa 0,0 l/m 0 min 0 min 115 W/m 3,2 km/h (1 Bft) 96,55 %
02.04.2019 16:38 11,2 C 11,1 C 10,0 C 93 % 1001,4 hPa 0,0 l/m 0 min 0 min 123 W/m 3,2 km/h (1 Bft) 91,43 %
02.04.2019 16:40 11,2 C 11,1 C 10,0 C 93 % 1001,4 hPa 0,0 l/m 0 min 0 min 119 W/m 3,2 km/h (1 Bft) 97,87 %
02.04.2019 16:42 11,3 C 11,1 C 10,0 C 93 % 1001,3 hPa 0,0 l/m 0 min 0 min 107 W/m 6,4 km/h (2 Bft) 97,87 %
02.04.2019 16:44 11,3 C 10,6 C 10,0 C 93 % 1001,3 hPa 0,0 l/m 0 min 0 min 105 W/m 9,7 km/h (2 Bft) 97,87 %
02.04.2019 16:46 11,3 C 11,1 C 10,0 C 93 % 1001,2 hPa 0,0 l/m 0 min 0 min 112 W/m 6,4 km/h (2 Bft) 95,74 %
02.04.2019 16:48 11,3 C 11,1 C 10,0 C 93 % 1001,1 hPa 0,0 l/m 0 min 0 min 125 W/m 12,9 km/h (3 Bft) 97,87 %
02.04.2019 16:50 11,4 C 11,1 C 10,0 C 92 % 1001,1 hPa 0,0 l/m 0 min 0 min 119 W/m 6,4 km/h (2 Bft) 97,83 %
02.04.2019 16:52 11,4 C 11,1 C 10,0 C 92 % 1001,0 hPa 0,0 l/m 0 min 0 min 114 W/m 9,7 km/h (2 Bft) 100,00 %
02.04.2019 16:54 11,4 C 11,1 C 10,0 C 92 % 1001,0 hPa 0,0 l/m 0 min 0 min 117 W/m 9,7 km/h (2 Bft) 95,74 %
02.04.2019 16:56 11,5 C 11,1 C 10,0 C 92 % 1000,9 hPa 0,0 l/m 0 min 0 min 120 W/m 12,9 km/h (3 Bft) 100,00 %
02.04.2019 16:58 11,5 C 11,1 C 10,0 C 92 % 1000,9 hPa 0,0 l/m 0 min 0 min 118 W/m 12,9 km/h (3 Bft) 97,87 %
02.04.2019 17:00 11,6 C 11,1 C 10,0 C 91 % 1000,9 hPa 0,0 l/m 0 min 0 min 125 W/m 16,1 km/h (3 Bft) 95,65 %
02.04.2019 17:02 11,6 C 11,1 C 10,6 C 91 % 1000,8 hPa 0,0 l/m 0 min 0 min 134 W/m 9,7 km/h (2 Bft) 100,00 %
02.04.2019 17:04 11,7 C 11,1 C 10,6 C 91 % 1000,9 hPa 0,0 l/m 0 min 0 min 146 W/m 3,2 km/h (1 Bft) 100,00 %
02.04.2019 17:06 11,7 C 11,7 C 10,6 C 91 % 1000,9 hPa 0,0 l/m 0 min 0 min 185 W/m 16,1 km/h (3 Bft) 98,31 %
02.04.2019 17:08 11,8 C 12,2 C 11,1 C 91 % 1000,8 hPa 0,0 l/m 2 min 0 min 244 W/m 12,9 km/h (3 Bft) 97,14 %
02.04.2019 17:10 11,9 C 13,3 C 12,2 C 91 % 1000,8 hPa 0,0 l/m 2 min 0 min 354 W/m 9,7 km/h (2 Bft) 100,00 %
02.04.2019 17:12 12,0 C 13,9 C 12,2 C 91 % 1000,8 hPa 0,0 l/m 2 min 0 min 508 W/m 9,7 km/h (2 Bft) 100,00 %
02.04.2019 17:14 12,1 C 13,9 C 11,7 C 91 % 1000,6 hPa 0,0 l/m 2 min 0 min 460 W/m 6,4 km/h (2 Bft) 97,87 %
02.04.2019 17:16 12,2 C 13,9 C 11,7 C 90 % 1000,6 hPa 0,0 l/m 2 min 0 min 421 W/m 12,9 km/h (3 Bft) 100,00 %
02.04.2019 17:18 12,3 C 13,9 C 11,7 C 90 % 1000,6 hPa 0,0 l/m 2 min 0 min 390 W/m 9,7 km/h (2 Bft) 100,00 %
02.04.2019 17:20 12,5 C 13,9 C 11,7 C 90 % 1000,5 hPa 0,0 l/m 2 min 0 min 317 W/m 6,4 km/h (2 Bft) 100,00 %
02.04.2019 17:22 12,6 C 13,3 C 11,7 C 90 % 1000,5 hPa 0,0 l/m 2 min 0 min 210 W/m 12,9 km/h (3 Bft) 95,74 %
02.04.2019 17:24 12,7 C 12,8 C 11,1 C 89 % 1000,5 hPa 0,0 l/m 2 min 0 min 207 W/m 16,1 km/h (3 Bft) 97,83 %
02.04.2019 17:26 12,8 C 12,8 C 11,1 C 89 % 1000,5 hPa 0,0 l/m 0 min 0 min 128 W/m 19,3 km/h (3 Bft) 97,87 %
02.04.2019 17:28 12,8 C 13,3 C 11,1 C 88 % 1000,5 hPa 0,0 l/m 0 min 0 min 123 W/m 12,9 km/h (3 Bft) 100,00 %
02.04.2019 17:30 12,9 C 13,3 C 11,1 C 88 % 1000,4 hPa 0,0 l/m 0 min 0 min 128 W/m 9,7 km/h (2 Bft) 100,00 %
02.04.2019 17:32 12,9 C 13,9 C 11,1 C 88 % 1000,4 hPa 0,0 l/m 0 min 0 min 161 W/m 16,1 km/h (3 Bft) 100,00 %
02.04.2019 17:34 12,9 C 13,9 C 11,1 C 87 % 1000,4 hPa 0,0 l/m 2 min 0 min 214 W/m 9,7 km/h (2 Bft) 97,87 %
02.04.2019 17:36 13,0 C 13,9 C 11,7 C 87 % 1000,4 hPa 0,0 l/m 2 min 0 min 275 W/m 12,9 km/h (3 Bft) 100,00 %
02.04.2019 17:38 13,1 C 14,4 C 11,7 C 86 % 1000,4 hPa 0,0 l/m 2 min 0 min 337 W/m 12,9 km/h (3 Bft) 100,00 %
02.04.2019 17:40 13,2 C 15,0 C 11,7 C 86 % 1000,4 hPa 0,0 l/m 2 min 0 min 324 W/m 16,1 km/h (3 Bft) 97,87 %
02.04.2019 17:42 13,2 C 14,4 C 11,7 C 86 % 1000,4 hPa 0,0 l/m 2 min 0 min 257 W/m 12,9 km/h (3 Bft) 100,00 %
02.04.2019 17:44 13,3 C 14,4 C 11,7 C 86 % 1000,3 hPa 0,0 l/m 0 min 0 min 143 W/m 12,9 km/h (3 Bft) 97,87 %
02.04.2019 17:46 13,3 C 13,9 C 11,7 C 85 % 1000,4 hPa 0,0 l/m 0 min 0 min 126 W/m 19,3 km/h (3 Bft) 97,87 %
02.04.2019 17:48 13,4 C 13,9 C 11,1 C 85 % 1000,3 hPa 0,0 l/m 0 min 0 min 102 W/m 12,9 km/h (3 Bft) 100,00 %
02.04.2019 17:50 13,4 C 13,3 C 11,1 C 85 % 1000,3 hPa 0,0 l/m 0 min 0 min 87 W/m 12,9 km/h (3 Bft) 100,00 %
02.04.2019 17:52 13,4 C 13,3 C 11,1 C 84 % 1000,3 hPa 0,0 l/m 0 min 0 min 92 W/m 16,1 km/h (3 Bft) 100,00 %
02.04.2019 17:54 13,5 C 13,3 C 11,1 C 84 % 1000,2 hPa 0,0 l/m 0 min 0 min 110 W/m 16,1 km/h (3 Bft) 97,87 %
02.04.2019 17:56 13,5 C 13,9 C 11,7 C 84 % 1000,2 hPa 0,0 l/m 0 min 0 min 118 W/m 19,3 km/h (3 Bft) 97,87 %
02.04.2019 17:58 13,6 C 13,9 C 11,7 C 83 % 1000,1 hPa 0,0 l/m 0 min 0 min 118 W/m 19,3 km/h (3 Bft) 100,00 %
02.04.2019 18:00 13,6 C 13,9 C 11,7 C 83 % 1000,1 hPa 0,0 l/m 0 min 0 min 134 W/m 19,3 km/h (3 Bft) 100,00 %
02.04.2019 18:02 13,6 C 13,9 C 11,7 C 83 % 1000,2 hPa 0,0 l/m 2 min 0 min 159 W/m 12,9 km/h (3 Bft) 100,00 %
02.04.2019 18:04 13,6 C 13,9 C 11,7 C 83 % 1000,2 hPa 0,0 l/m 0 min 0 min 147 W/m 9,7 km/h (2 Bft) 95,74 %
02.04.2019 18:07 13,7 C 13,9 C 12,8 C 82 % 1000,2 hPa 0,0 l/m 0 min 0 min 132 W/m 19,3 km/h (3 Bft) 97,56 %
02.04.2019 18:08 13,7 C 13,9 C 12,8 C 82 % 1000,2 hPa 0,0 l/m 0 min 0 min 105 W/m 19,3 km/h (3 Bft) 100,00 %
02.04.2019 18:10 13,7 C 13,9 C 12,8 C 81 % 1000,2 hPa 0,0 l/m 0 min 0 min 93 W/m 16,1 km/h (3 Bft) 95,74 %
02.04.2019 18:12 13,8 C 13,9 C 12,8 C 81 % 1000,2 hPa 0,0 l/m 0 min 0 min 93 W/m 12,9 km/h (3 Bft) 97,83 %
02.04.2019 18:14 13,8 C 13,9 C 12,8 C 80 % 1000,2 hPa 0,0 l/m 0 min 0 min 91 W/m 9,7 km/h (2 Bft) 97,87 %
02.04.2019 18:16 13,8 C 13,9 C 12,8 C 79 % 1000,2 hPa 0,0 l/m 0 min 0 min 95 W/m 9,7 km/h (2 Bft) 97,87 %
02.04.2019 18:18 13,8 C 13,9 C 12,8 C 79 % 1000,1 hPa 0,0 l/m 0 min 0 min 99 W/m 16,1 km/h (3 Bft) 97,87 %
02.04.2019 18:20 13,9 C 13,9 C 12,8 C 79 % 1000,1 hPa 0,0 l/m 0 min 0 min 99 W/m 12,9 km/h (3 Bft) 97,87 %
02.04.2019 18:22 13,9 C 14,4 C 12,8 C 78 % 1000,2 hPa 0,0 l/m 0 min 0 min 99 W/m 22,5 km/h (4 Bft) 97,83 %
02.04.2019 18:24 13,9 C 14,4 C 12,8 C 78 % 1000,2 hPa 0,0 l/m 0 min 0 min 99 W/m 19,3 km/h (3 Bft) 97,87 %
02.04.2019 18:26 14,0 C 14,4 C 12,8 C 77 % 1000,2 hPa 0,0 l/m 0 min 0 min 101 W/m 9,7 km/h (2 Bft) 97,87 %
02.04.2019 18:28 14,1 C 14,4 C 12,8 C 77 % 1000,2 hPa 0,0 l/m 0 min 0 min 106 W/m 16,1 km/h (3 Bft) 97,87 %
02.04.2019 18:30 14,1 C 14,4 C 12,8 C 77 % 1000,2 hPa 0,0 l/m 0 min 0 min 106 W/m 12,9 km/h (3 Bft) 95,74 %
02.04.2019 18:32 14,2 C 14,4 C 12,8 C 77 % 1000,2 hPa 0,0 l/m 0 min 0 min 108 W/m 12,9 km/h (3 Bft) 89,36 %
02.04.2019 18:34 14,2 C 14,4 C 12,8 C 77 % 1000,2 hPa 0,0 l/m 0 min 0 min 105 W/m 12,9 km/h (3 Bft) 95,65 %
02.04.2019 18:36 14,2 C 14,4 C 12,8 C 77 % 1000,2 hPa 0,0 l/m 0 min 0 min 102 W/m 16,1 km/h (3 Bft) 94,92 %
02.04.2019 18:38 14,2 C 14,4 C 13,3 C 77 % 1000,2 hPa 0,0 l/m 0 min 0 min 94 W/m 12,9 km/h (3 Bft) 97,14 %
02.04.2019 18:40 14,2 C 14,4 C 13,3 C 77 % 1000,2 hPa 0,0 l/m 0 min 0 min 91 W/m 9,7 km/h (2 Bft) 93,62 %
02.04.2019 18:42 14,2 C 14,4 C 12,8 C 77 % 1000,2 hPa 0,0 l/m 0 min 0 min 89 W/m 9,7 km/h (2 Bft) 93,62 %
02.04.2019 18:44 14,2 C 14,4 C 12,8 C 77 % 1000,2 hPa 0,0 l/m 0 min 0 min 88 W/m 6,4 km/h (2 Bft) 95,74 %
02.04.2019 18:46 14,2 C 14,4 C 13,3 C 77 % 1000,1 hPa 0,0 l/m 0 min 0 min 90 W/m 6,4 km/h (2 Bft) 95,65 %
02.04.2019 18:48 14,2 C 14,4 C 13,3 C 76 % 1000,2 hPa 0,0 l/m 0 min 0 min 88 W/m 12,9 km/h (3 Bft) 95,74 %
02.04.2019 18:50 14,2 C 14,4 C 13,3 C 76 % 1000,2 hPa 0,0 l/m 0 min 0 min 88 W/m 16,1 km/h (3 Bft) 93,62 %
02.04.2019 18:52 14,2 C 14,4 C 13,3 C 75 % 1000,2 hPa 0,0 l/m 0 min 0 min 90 W/m 12,9 km/h (3 Bft) 95,74 %
02.04.2019 18:54 14,3 C 14,4 C 13,3 C 75 % 1000,2 hPa 0,0 l/m 0 min 0 min 88 W/m 12,9 km/h (3 Bft) 93,62 %
02.04.2019 18:56 14,3 C 14,4 C 13,3 C 75 % 1000,2 hPa 0,0 l/m 0 min 0 min 80 W/m 12,9 km/h (3 Bft) 95,74 %
02.04.2019 18:58 14,3 C 13,9 C 13,3 C 75 % 1000,2 hPa 0,0 l/m 0 min 0 min 71 W/m 12,9 km/h (3 Bft) 91,30 %
02.04.2019 19:00 14,3 C 14,4 C 13,3 C 75 % 1000,2 hPa 0,0 l/m 0 min 0 min 71 W/m 9,7 km/h (2 Bft) 93,62 %
02.04.2019 19:02 14,3 C 13,9 C 13,3 C 75 % 1000,2 hPa 0,0 l/m 0 min 0 min 68 W/m 12,9 km/h (3 Bft) 95,74 %
02.04.2019 19:04 14,3 C 13,9 C 13,3 C 75 % 1000,2 hPa 0,0 l/m 0 min 0 min 64 W/m 16,1 km/h (3 Bft) 95,74 %
02.04.2019 19:06 14,3 C 13,9 C 12,8 C 75 % 1000,2 hPa 0,0 l/m 0 min 0 min 63 W/m 9,7 km/h (2 Bft) 94,83 %
02.04.2019 19:08 14,3 C 13,9 C 12,8 C 75 % 1000,2 hPa 0,0 l/m 0 min 0 min 59 W/m 12,9 km/h (3 Bft) 94,44 %
02.04.2019 19:10 14,3 C 13,9 C 12,8 C 75 % 1000,2 hPa 0,0 l/m 0 min 0 min 55 W/m 12,9 km/h (3 Bft) 95,65 %
02.04.2019 19:12 14,3 C 13,9 C 12,8 C 75 % 1000,3 hPa 0,0 l/m 0 min 0 min 50 W/m 9,7 km/h (2 Bft) 97,87 %
02.04.2019 19:14 14,3 C 13,9 C 12,8 C 75 % 1000,3 hPa 0,0 l/m 0 min 0 min 45 W/m 9,7 km/h (2 Bft) 97,87 %
02.04.2019 19:16 14,3 C 13,9 C 12,8 C 76 % 1000,2 hPa 0,0 l/m 0 min 0 min 44 W/m 9,7 km/h (2 Bft) 97,87 %
02.04.2019 19:18 14,3 C 13,3 C 12,8 C 76 % 1000,3 hPa 0,0 l/m 0 min 0 min 42 W/m 9,7 km/h (2 Bft) 95,74 %
02.04.2019 19:20 14,3 C 13,3 C 12,8 C 76 % 1000,3 hPa 0,0 l/m 0 min 0 min 40 W/m 12,9 km/h (3 Bft) 97,87 %
02.04.2019 19:22 14,2 C 13,3 C 12,2 C 76 % 1000,3 hPa 0,0 l/m 0 min 0 min 38 W/m 6,4 km/h (2 Bft) 97,83 %
02.04.2019 19:24 14,2 C 13,3 C 12,2 C 76 % 1000,4 hPa 0,0 l/m 0 min 0 min 35 W/m 9,7 km/h (2 Bft) 97,87 %
02.04.2019 19:26 14,2 C 13,3 C 12,2 C 76 % 1000,3 hPa 0,0 l/m 0 min 0 min 28 W/m 9,7 km/h (2 Bft) 95,74 %
02.04.2019 19:28 14,2 C 13,3 C 12,2 C 76 % 1000,4 hPa 0,0 l/m 0 min 0 min 20 W/m 9,7 km/h (2 Bft) 97,87 %
02.04.2019 19:30 14,2 C 12,8 C 12,2 C 76 % 1000,4 hPa 0,0 l/m 0 min 0 min 14 W/m 9,7 km/h (2 Bft) 97,87 %
02.04.2019 19:32 14,2 C 12,8 C 12,2 C 76 % 1000,5 hPa 0,0 l/m 0 min 0 min 12 W/m 16,1 km/h (3 Bft) 97,83 %
02.04.2019 19:34 14,2 C 12,8 C 12,2 C 76 % 1000,7 hPa 0,0 l/m 0 min 0 min 12 W/m 12,9 km/h (3 Bft) 97,87 %
02.04.2019 19:36 14,0 C 12,8 C 12,2 C 74 % 1001,1 hPa 0,0 l/m 0 min 0 min 18 W/m 22,5 km/h (4 Bft) 96,61 %
02.04.2019 19:38 13,9 C 12,8 C 11,7 C 72 % 1000,9 hPa 0,0 l/m 0 min 0 min 22 W/m 22,5 km/h (4 Bft) 97,14 %
02.04.2019 19:40 13,7 C 12,2 C 11,7 C 71 % 1001,0 hPa 0,0 l/m 0 min 0 min 23 W/m 22,5 km/h (4 Bft) 95,74 %
02.04.2019 19:42 13,6 C 11,7 C 11,1 C 71 % 1001,0 hPa 0,0 l/m 0 min 0 min 22 W/m 16,1 km/h (3 Bft) 95,74 %
02.04.2019 19:44 13,4 C 11,7 C 11,1 C 71 % 1001,0 hPa 0,0 l/m 0 min 0 min 21 W/m 19,3 km/h (3 Bft) 95,65 %
02.04.2019 19:46 13,2 C 11,7 C 11,1 C 71 % 1001,2 hPa 0,0 l/m 0 min 0 min 20 W/m 16,1 km/h (3 Bft) 97,87 %
02.04.2019 19:48 13,0 C 11,1 C 10,6 C 71 % 1001,2 hPa 0,0 l/m 0 min 0 min 19 W/m 19,3 km/h (3 Bft) 100,00 %
02.04.2019 19:50 12,8 C 11,1 C 10,6 C 71 % 1001,2 hPa 0,0 l/m 0 min 0 min 18 W/m 25,7 km/h (4 Bft) 100,00 %
02.04.2019 19:52 12,7 C 11,1 C 10,6 C 72 % 1001,2 hPa 0,0 l/m 0 min 0 min 16 W/m 16,1 km/h (3 Bft) 97,87 %
02.04.2019 19:54 12,5 C 11,1 C 10,6 C 72 % 1001,2 hPa 0,0 l/m 0 min 0 min 13 W/m 9,7 km/h (2 Bft) 97,87 %
02.04.2019 19:56 12,4 C 10,6 C 10,0 C 73 % 1001,2 hPa 0,0 l/m 0 min 0 min 12 W/m 12,9 km/h (3 Bft) 100,00 %
02.04.2019 19:58 12,3 C 10,6 C 10,0 C 73 % 1001,2 hPa 0,0 l/m 0 min 0 min 10 W/m 29,0 km/h (5 Bft) 100,00 %
02.04.2019 20:00 12,2 C 10,6 C 10,0 C 73 % 1001,3 hPa 0,0 l/m 0 min 0 min 7 W/m 25,7 km/h (4 Bft) 100,00 %
02.04.2019 20:02 12,1 C 10,6 C 10,0 C 74 % 1001,3 hPa 0,0 l/m 0 min 0 min 6 W/m 19,3 km/h (3 Bft) 100,00 %
02.04.2019 20:04 11,9 C 10,6 C 10,0 C 74 % 1001,2 hPa 0,0 l/m 0 min 0 min 5 W/m 12,9 km/h (3 Bft) 97,87 %
02.04.2019 20:06 11,9 C 10,6 C 10,0 C 75 % 1001,2 hPa 0,0 l/m 0 min 0 min 3 W/m 16,1 km/h (3 Bft) 100,00 %
02.04.2019 20:08 11,8 C 10,6 C 10,0 C 75 % 1001,2 hPa 0,0 l/m 0 min 0 min 0 W/m 12,9 km/h (3 Bft) 100,00 %
02.04.2019 20:10 11,8 C 10,6 C 10,0 C 75 % 1001,0 hPa 0,0 l/m 0 min 0 min 0 W/m 16,1 km/h (3 Bft) 95,74 %
02.04.2019 20:12 11,7 C 10,6 C 10,0 C 76 % 1001,0 hPa 0,0 l/m 0 min 0 min 0 W/m 12,9 km/h (3 Bft) 100,00 %
02.04.2019 20:14 11,6 C 10,6 C 10,0 C 76 % 1001,2 hPa 0,0 l/m 0 min 0 min 0 W/m 16,1 km/h (3 Bft) 97,87 %
02.04.2019 20:16 11,6 C 10,6 C 10,0 C 76 % 1001,3 hPa 0,0 l/m 0 min 0 min 0 W/m 32,2 km/h (5 Bft) 100,00 %
02.04.2019 20:18 11,5 C 10,6 C 10,0 C 77 % 1001,3 hPa 0,0 l/m 0 min 0 min 0 W/m 29,0 km/h (5 Bft) 100,00 %
02.04.2019 20:20 11,5 C 10,6 C 10,0 C 77 % 1001,3 hPa 0,0 l/m 0 min 0 min 0 W/m 22,5 km/h (4 Bft) 100,00 %
02.04.2019 20:22 11,4 C 10,6 C 10,0 C 78 % 1001,4 hPa 0,0 l/m 0 min 0 min 0 W/m 22,5 km/h (4 Bft) 100,00 %
02.04.2019 20:24 11,4 C 10,6 C 10,0 C 78 % 1001,4 hPa 0,0 l/m 0 min 0 min 0 W/m 22,5 km/h (4 Bft) 100,00 %
02.04.2019 20:26 11,3 C 10,0 C 10,0 C 79 % 1001,4 hPa 0,0 l/m 0 min 0 min 0 W/m 19,3 km/h (3 Bft) 100,00 %
02.04.2019 20:28 11,3 C 10,0 C 10,0 C 79 % 1001,5 hPa 0,0 l/m 0 min 0 min 0 W/m 25,7 km/h (4 Bft) 100,00 %
02.04.2019 20:30 11,2 C 10,0 C 10,0 C 80 % 1001,6 hPa 0,0 l/m 0 min 0 min 0 W/m 22,5 km/h (4 Bft) 100,00 %
02.04.2019 20:32 11,2 C 10,0 C 9,4 C 80 % 1001,7 hPa 0,0 l/m 0 min 0 min 0 W/m 22,5 km/h (4 Bft) 97,83 %
02.04.2019 20:34 11,1 C 10,0 C 9,4 C 81 % 1001,6 hPa 0,0 l/m 0 min 0 min 0 W/m 22,5 km/h (4 Bft) 100,00 %
02.04.2019 20:36 11,1 C 9,4 C 9,4 C 81 % 1001,5 hPa 0,0 l/m 0 min 2 min 0 W/m 16,1 km/h (3 Bft) 100,00 %
02.04.2019 20:38 11,1 C 9,4 C 8,9 C 81 % 1001,5 hPa 0,0 l/m 0 min 2 min 0 W/m 16,1 km/h (3 Bft) 100,00 %
02.04.2019 20:40 11,0 C 8,9 C 8,3 C 82 % 1001,5 hPa 0,0 l/m 0 min 2 min 0 W/m 12,9 km/h (3 Bft) 97,87 %
02.04.2019 20:42 11,0 C 8,9 C 8,3 C 83 % 1001,5 hPa 0,0 l/m 0 min 2 min 0 W/m 22,5 km/h (4 Bft) 97,87 %
02.04.2019 20:44 10,9 C 8,3 C 8,3 C 83 % 1001,6 hPa 0,0 l/m 0 min 2 min 0 W/m 22,5 km/h (4 Bft) 100,00 %
02.04.2019 20:46 10,8 C 8,3 C 7,8 C 84 % 1001,7 hPa 0,2 l/m 0 min 2 min 0 W/m 19,3 km/h (3 Bft) 100,00 %
02.04.2019 20:48 10,8 C 7,8 C 7,8 C 84 % 1001,7 hPa 0,0 l/m 0 min 2 min 0 W/m 22,5 km/h (4 Bft) 100,00 %
02.04.2019 20:50 10,7 C 7,8 C 7,8 C 85 % 1001,6 hPa 0,2 l/m 0 min 2 min 0 W/m 16,1 km/h (3 Bft) 95,74 %
02.04.2019 20:52 10,7 C 7,8 C 7,8 C 86 % 1001,6 hPa 0,0 l/m 0 min 2 min 0 W/m 19,3 km/h (3 Bft) 95,74 %
02.04.2019 20:54 10,6 C 7,8 C 7,8 C 86 % 1001,6 hPa 0,2 l/m 0 min 2 min 0 W/m 16,1 km/h (3 Bft) 97,87 %
02.04.2019 20:56 10,4 C 7,8 C 7,8 C 86 % 1001,5 hPa 0,0 l/m 0 min 2 min 0 W/m 19,3 km/h (3 Bft) 97,83 %
02.04.2019 20:58 10,4 C 7,8 C 7,8 C 87 % 1001,5 hPa 0,2 l/m 0 min 2 min 0 W/m 25,7 km/h (4 Bft) 93,62 %
02.04.2019 21:00 10,3 C 7,8 C 7,8 C 87 % 1001,5 hPa 0,0 l/m 0 min 2 min 0 W/m 12,9 km/h (3 Bft) 97,87 %
02.04.2019 21:02 10,2 C 7,8 C 7,8 C 88 % 1001,5 hPa 0,2 l/m 0 min 2 min 0 W/m 16,1 km/h (3 Bft) 95,74 %
02.04.2019 21:04 10,2 C 7,8 C 7,8 C 88 % 1001,5 hPa 0,0 l/m 0 min 2 min 0 W/m 12,9 km/h (3 Bft) 97,87 %
02.04.2019 21:06 10,1 C 7,8 C 7,8 C 88 % 1001,4 hPa 0,2 l/m 0 min 2 min 0 W/m 6,4 km/h (2 Bft) 98,28 %
02.04.2019 21:08 10,1 C 7,8 C 7,8 C 89 % 1001,4 hPa 0,0 l/m 0 min 2 min 0 W/m 9,7 km/h (2 Bft) 97,14 %
02.04.2019 21:10 10,1 C 7,8 C 7,8 C 89 % 1001,4 hPa 0,0 l/m 0 min 2 min 0 W/m 6,4 km/h (2 Bft) 97,87 %
02.04.2019 21:12 10,0 C 7,8 C 7,8 C 89 % 1001,4 hPa 0,0 l/m 0 min 2 min 0 W/m 6,4 km/h (2 Bft) 97,87 %
02.04.2019 21:14 9,9 C 7,8 C 7,8 C 89 % 1001,4 hPa 0,0 l/m 0 min 2 min 0 W/m 6,4 km/h (2 Bft) 95,74 %
02.04.2019 21:16 9,9 C 7,8 C 7,8 C 90 % 1001,3 hPa 0,2 l/m 0 min 2 min 0 W/m 6,4 km/h (2 Bft) 95,74 %
02.04.2019 21:18 9,9 C 7,8 C 7,8 C 90 % 1001,1 hPa 0,0 l/m 0 min 2 min 0 W/m 3,2 km/h (1 Bft) 95,65 %
02.04.2019 21:20 9,8 C 7,8 C 7,8 C 90 % 1001,2 hPa 0,0 l/m 0 min 2 min 0 W/m 3,2 km/h (1 Bft) 93,62 %
02.04.2019 21:22 9,8 C 7,8 C 7,8 C 90 % 1001,3 hPa 0,0 l/m 0 min 2 min 0 W/m 3,2 km/h (1 Bft) 93,62 %
02.04.2019 21:24 9,8 C 7,8 C 7,8 C 90 % 1001,3 hPa 0,0 l/m 0 min 2 min 0 W/m 6,4 km/h (2 Bft) 95,74 %
02.04.2019 21:26 9,7 C 7,8 C 7,8 C 91 % 1001,3 hPa 0,0 l/m 0 min 2 min 0 W/m 9,7 km/h (2 Bft) 93,62 %
02.04.2019 21:28 9,7 C 7,8 C 7,8 C 91 % 1001,3 hPa 0,0 l/m 0 min 2 min 0 W/m 12,9 km/h (3 Bft) 93,62 %
02.04.2019 21:30 9,7 C 7,8 C 7,8 C 91 % 1001,3 hPa 0,0 l/m 0 min 2 min 0 W/m 6,4 km/h (2 Bft) 95,74 %
02.04.2019 21:32 9,6 C 7,8 C 7,8 C 91 % 1001,2 hPa 0,0 l/m 0 min 2 min 0 W/m 6,4 km/h (2 Bft) 95,65 %
02.04.2019 21:34 9,6 C 7,8 C 7,2 C 91 % 1001,1 hPa 0,0 l/m 0 min 2 min 0 W/m 6,4 km/h (2 Bft) 95,74 %
02.04.2019 21:36 9,6 C 7,8 C 7,2 C 91 % 1001,2 hPa 0,2 l/m 0 min 2 min 0 W/m 12,9 km/h (3 Bft) 94,92 %
02.04.2019 21:38 9,5 C 7,8 C 7,2 C 91 % 1001,1 hPa 0,0 l/m 0 min 2 min 0 W/m 9,7 km/h (2 Bft) 97,14 %
02.04.2019 21:40 9,5 C 7,8 C 7,2 C 92 % 1001,2 hPa 0,0 l/m 0 min 2 min 0 W/m 9,7 km/h (2 Bft) 97,87 %
02.04.2019 21:42 9,4 C 7,8 C 7,2 C 92 % 1001,2 hPa 0,0 l/m 0 min 2 min 0 W/m 9,7 km/h (2 Bft) 97,83 %
02.04.2019 21:44 9,4 C 7,8 C 7,2 C 92 % 1001,1 hPa 0,0 l/m 0 min 2 min 0 W/m 6,4 km/h (2 Bft) 95,74 %
02.04.2019 21:46 9,4 C 7,8 C 7,2 C 92 % 1001,1 hPa 0,0 l/m 0 min 0 min 0 W/m 16,1 km/h (3 Bft) 97,87 %
02.04.2019 21:48 9,3 C 7,8 C 7,2 C 92 % 1001,0 hPa 0,0 l/m 0 min 0 min 0 W/m 9,7 km/h (2 Bft) 97,87 %
02.04.2019 21:50 9,3 C 7,8 C 7,2 C 92 % 1000,9 hPa 0,0 l/m 0 min 0 min 0 W/m 12,9 km/h (3 Bft) 97,87 %
02.04.2019 21:52 9,3 C 7,8 C 7,2 C 92 % 1000,9 hPa 0,0 l/m 0 min 0 min 0 W/m 9,7 km/h (2 Bft) 95,65 %
02.04.2019 21:54 9,2 C 7,8 C 7,2 C 92 % 1000,8 hPa 0,0 l/m 0 min 0 min 0 W/m 16,1 km/h (3 Bft) 97,87 %
02.04.2019 21:56 9,2 C 7,8 C 7,2 C 93 % 1000,8 hPa 0,0 l/m 0 min 0 min 0 W/m 16,1 km/h (3 Bft) 97,87 %
02.04.2019 21:58 9,2 C 7,8 C 7,2 C 93 % 1000,8 hPa 0,0 l/m 0 min 0 min 0 W/m 12,9 km/h (3 Bft) 97,87 %
02.04.2019 22:00 9,2 C 7,8 C 7,2 C 92 % 1000,7 hPa 0,0 l/m 0 min 0 min 0 W/m 16,1 km/h (3 Bft) 93,62 %
02.04.2019 22:02 9,1 C 7,8 C 7,2 C 93 % 1000,7 hPa 0,0 l/m 0 min 0 min 0 W/m 6,4 km/h (2 Bft) 100,00 %
02.04.2019 22:04 9,1 C 7,8 C 7,2 C 93 % 1000,8 hPa 0,0 l/m 0 min 0 min 0 W/m 9,7 km/h (2 Bft) 100,00 %
02.04.2019 22:06 9,1 C 7,8 C 7,2 C 93 % 1000,9 hPa 0,0 l/m 0 min 0 min 0 W/m 12,9 km/h (3 Bft) 98,31 %
02.04.2019 22:08 9,1 C 7,8 C 7,2 C 93 % 1001,0 hPa 0,0 l/m 0 min 0 min 0 W/m 6,4 km/h (2 Bft) 97,14 %
02.04.2019 22:10 9,0 C 7,8 C 7,2 C 93 % 1001,0 hPa 0,0 l/m 0 min 0 min 0 W/m 9,7 km/h (2 Bft) 100,00 %
02.04.2019 22:12 9,0 C 7,8 C 7,2 C 93 % 1001,0 hPa 0,0 l/m 0 min 0 min 0 W/m 12,9 km/h (3 Bft) 100,00 %
02.04.2019 22:14 9,0 C 7,8 C 7,2 C 93 % 1001,0 hPa 0,0 l/m 0 min 0 min 0 W/m 9,7 km/h (2 Bft) 100,00 %
02.04.2019 22:16 8,9 C 7,8 C 7,2 C 93 % 1001,0 hPa 0,0 l/m 0 min 0 min 0 W/m 12,9 km/h (3 Bft) 97,83 %
02.04.2019 22:18 8,9 C 7,8 C 7,2 C 93 % 1001,0 hPa 0,0 l/m 0 min 0 min 0 W/m 9,7 km/h (2 Bft) 97,87 %
02.04.2019 22:20 8,9 C 7,8 C 7,2 C 93 % 1001,1 hPa 0,0 l/m 0 min 0 min 0 W/m 22,5 km/h (4 Bft) 100,00 %
02.04.2019 22:22 8,9 C 7,8 C 7,2 C 93 % 1001,1 hPa 0,0 l/m 0 min 0 min 0 W/m 12,9 km/h (3 Bft) 100,00 %
02.04.2019 22:24 8,9 C 7,8 C 7,2 C 93 % 1001,0 hPa 0,0 l/m 0 min 0 min 0 W/m 12,9 km/h (3 Bft) 97,87 %
02.04.2019 22:26 8,8 C 7,8 C 7,2 C 93 % 1001,0 hPa 0,0 l/m 0 min 0 min 0 W/m 16,1 km/h (3 Bft) 100,00 %
02.04.2019 22:28 8,8 C 7,8 C 7,2 C 93 % 1001,0 hPa 0,0 l/m 0 min 0 min 0 W/m 16,1 km/h (3 Bft) 100,00 %
02.04.2019 22:30 8,8 C 7,8 C 7,2 C 93 % 1000,9 hPa 0,0 l/m 0 min 0 min 0 W/m 12,9 km/h (3 Bft) 100,00 %
02.04.2019 22:32 8,8 C 7,8 C 7,2 C 94 % 1000,9 hPa 0,0 l/m 0 min 0 min 0 W/m 9,7 km/h (2 Bft) 95,74 %
02.04.2019 22:34 8,8 C 7,2 C 7,2 C 94 % 1000,9 hPa 0,0 l/m 0 min 0 min 0 W/m 9,7 km/h (2 Bft) 97,87 %
02.04.2019 22:36 8,8 C 7,2 C 7,2 C 94 % 1000,9 hPa 0,0 l/m 0 min 0 min 0 W/m 16,1 km/h (3 Bft) 98,28 %
02.04.2019 22:38 8,7 C 7,2 C 7,2 C 94 % 1000,9 hPa 0,0 l/m 0 min 0 min 0 W/m 9,7 km/h (2 Bft) 97,22 %
02.04.2019 22:40 8,7 C 7,2 C 7,2 C 94 % 1000,9 hPa 0,0 l/m 0 min 0 min 0 W/m 6,4 km/h (2 Bft) 97,83 %
02.04.2019 22:42 8,7 C 7,2 C 7,2 C 94 % 1000,8 hPa 0,0 l/m 0 min 0 min 0 W/m 9,7 km/h (2 Bft) 95,74 %
02.04.2019 22:44 8,7 C 7,2 C 7,2 C 94 % 1001,0 hPa 0,0 l/m 0 min 0 min 0 W/m 9,7 km/h (2 Bft) 97,87 %
02.04.2019 22:46 8,7 C 7,2 C 7,2 C 94 % 1000,9 hPa 0,0 l/m 0 min 0 min 0 W/m 6,4 km/h (2 Bft) 97,87 %
02.04.2019 22:48 8,7 C 7,2 C 7,2 C 94 % 1000,8 hPa 0,0 l/m 0 min 0 min 0 W/m 6,4 km/h (2 Bft) 97,87 %
02.04.2019 22:50 8,7 C 7,2 C 7,2 C 94 % 1000,9 hPa 0,0 l/m 0 min 0 min 0 W/m 19,3 km/h (3 Bft) 97,87 %
02.04.2019 22:52 8,7 C 7,2 C 7,2 C 94 % 1000,9 hPa 0,0 l/m 0 min 0 min 0 W/m 16,1 km/h (3 Bft) 97,83 %
02.04.2019 22:54 8,6 C 7,2 C 7,2 C 94 % 1000,9 hPa 0,0 l/m 0 min 0 min 0 W/m 16,1 km/h (3 Bft) 97,87 %
02.04.2019 22:56 8,6 C 7,2 C 7,2 C 94 % 1000,8 hPa 0,0 l/m 0 min 0 min 0 W/m 6,4 km/h (2 Bft) 97,87 %
02.04.2019 22:58 8,6 C 7,2 C 7,2 C 94 % 1000,9 hPa 0,0 l/m 0 min 0 min 0 W/m 6,4 km/h (2 Bft) 97,87 %
02.04.2019 23:00 8,6 C 7,2 C 7,2 C 94 % 1000,9 hPa 0,0 l/m 0 min 0 min 0 W/m 6,4 km/h (2 Bft) 95,74 %
02.04.2019 23:02 8,6 C 7,2 C 7,2 C 94 % 1000,9 hPa 0,0 l/m 0 min 0 min 0 W/m 12,9 km/h (3 Bft) 97,87 %
02.04.2019 23:04 8,6 C 7,2 C 7,2 C 94 % 1000,8 hPa 0,0 l/m 0 min 0 min 0 W/m 9,7 km/h (2 Bft) 97,83 %
02.04.2019 23:06 8,6 C 7,2 C 7,2 C 94 % 1000,8 hPa 0,0 l/m 0 min 0 min 0 W/m 9,7 km/h (2 Bft) 94,92 %
02.04.2019 23:08 8,6 C 7,2 C 7,2 C 94 % 1000,9 hPa 0,0 l/m 0 min 0 min 0 W/m 12,9 km/h (3 Bft) 97,14 %
02.04.2019 23:10 8,6 C 7,2 C 7,2 C 94 % 1000,9 hPa 0,0 l/m 0 min 0 min 0 W/m 16,1 km/h (3 Bft) 95,74 %
02.04.2019 23:12 8,6 C 7,2 C 7,2 C 94 % 1000,9 hPa 0,0 l/m 0 min 0 min 0 W/m 9,7 km/h (2 Bft) 97,87 %
02.04.2019 23:14 8,6 C 7,2 C 7,2 C 94 % 1000,9 hPa 0,0 l/m 0 min 0 min 0 W/m 6,4 km/h (2 Bft) 97,83 %
02.04.2019 23:16 8,6 C 7,2 C 6,7 C 94 % 1001,0 hPa 0,0 l/m 0 min 0 min 0 W/m 6,4 km/h (2 Bft) 95,74 %
02.04.2019 23:18 8,6 C 7,2 C 7,2 C 94 % 1001,0 hPa 0,0 l/m 0 min 0 min 0 W/m 12,9 km/h (3 Bft) 97,87 %
02.04.2019 23:20 8,6 C 7,2 C 7,2 C 94 % 1000,9 hPa 0,0 l/m 0 min 0 min 0 W/m 6,4 km/h (2 Bft) 97,87 %
02.04.2019 23:22 8,5 C 7,2 C 7,2 C 94 % 1001,0 hPa 0,0 l/m 0 min 0 min 0 W/m 6,4 km/h (2 Bft) 95,74 %
02.04.2019 23:24 8,5 C 7,2 C 7,2 C 94 % 1001,0 hPa 0,0 l/m 0 min 0 min 0 W/m 6,4 km/h (2 Bft) 97,87 %
02.04.2019 23:26 8,5 C 7,2 C 7,2 C 95 % 1001,0 hPa 0,0 l/m 0 min 0 min 0 W/m 6,4 km/h (2 Bft) 95,65 %
02.04.2019 23:28 8,5 C 7,2 C 7,2 C 95 % 1001,0 hPa 0,0 l/m 0 min 0 min 0 W/m 3,2 km/h (1 Bft) 93,62 %
02.04.2019 23:30 8,5 C 7,2 C 7,2 C 95 % 1001,0 hPa 0,0 l/m 0 min 0 min 0 W/m 3,2 km/h (1 Bft) 95,74 %
02.04.2019 23:32 8,5 C 7,2 C 7,2 C 95 % 1001,1 hPa 0,0 l/m 0 min 0 min 0 W/m 9,7 km/h (2 Bft) 97,87 %
02.04.2019 23:34 8,5 C 7,2 C 7,2 C 95 % 1001,1 hPa 0,0 l/m 0 min 0 min 0 W/m 9,7 km/h (2 Bft) 97,87 %
02.04.2019 23:36 8,5 C 7,2 C 7,2 C 95 % 1001,1 hPa 0,0 l/m 0 min 0 min 0 W/m 6,4 km/h (2 Bft) 96,55 %
02.04.2019 23:38 8,5 C 7,2 C 6,7 C 94 % 1001,0 hPa 0,0 l/m 0 min 0 min 0 W/m 9,7 km/h (2 Bft) 97,14 %
02.04.2019 23:40 8,5 C 7,2 C 6,7 C 94 % 1001,1 hPa 0,0 l/m 0 min 0 min 0 W/m 6,4 km/h (2 Bft) 97,87 %
02.04.2019 23:42 8,4 C 7,2 C 6,7 C 95 % 1001,0 hPa 0,0 l/m 0 min 0 min 0 W/m 3,2 km/h (1 Bft) 97,87 %
02.04.2019 23:44 8,4 C 7,2 C 6,7 C 95 % 1001,0 hPa 0,0 l/m 0 min 0 min 0 W/m 3,2 km/h (1 Bft) 93,62 %
02.04.2019 23:46 8,4 C 7,2 C 6,7 C 95 % 1001,0 hPa 0,0 l/m 0 min 0 min 0 W/m 3,2 km/h (1 Bft) 97,87 %
02.04.2019 23:48 8,4 C 7,2 C 6,7 C 95 % 1000,9 hPa 0,0 l/m 0 min 0 min 0 W/m 6,4 km/h (2 Bft) 97,87 %
02.04.2019 23:50 8,4 C 7,2 C 6,7 C 95 % 1001,0 hPa 0,0 l/m 0 min 0 min 0 W/m 6,4 km/h (2 Bft) 97,83 %
02.04.2019 23:52 8,4 C 7,2 C 6,7 C 95 % 1001,1 hPa 0,0 l/m 0 min 0 min 0 W/m 6,4 km/h (2 Bft) 97,87 %
02.04.2019 23:54 8,4 C 7,2 C 6,7 C 95 % 1001,0 hPa 0,0 l/m 0 min 0 min 0 W/m 6,4 km/h (2 Bft) 97,87 %
02.04.2019 23:56 8,4 C 7,2 C 6,7 C 95 % 1001,0 hPa 0,0 l/m 0 min 0 min 0 W/m 3,2 km/h (1 Bft) 97,87 %
02.04.2019 23:58 8,4 C 7,2 C 6,7 C 95 % 1001,0 hPa 0,0 l/m 0 min 0 min 0 W/m 3,2 km/h (1 Bft) 95,74 %
_ Min-Zeit 06:50 06:30 00:07 11:02 17:58 - - - - 00:07 06:56
Minimum _ 7,6 C 6,7 C 5,0 C 66 % 1000,1 hPa - - - - 0,0 km/h (0 Bft) 87,23 %
_ Max-Zeit 18:54 10:50 10:52 23:26 00:00 13:06 09:36 12:10 17:12 10:40 00:08
Maximum _ 14,3 C 16,1 C 16,1 C 95 % 1012,7 hPa 0,2 l/m 2 min 2 min 508 W/m 41,8 km/h
SO (6 Bft)
100,00 %
Durchschnitt _ 10,4 C 9,9 C 9,2 C 80 % 1005,2 hPa #3,8 l/m #2:10 h #3:38 h 139 W/m 13,7 km/h (3 Bft) 97,43 %
© 2019 W. Hausmann